                ,  0.209,  0.306,  0.403,  0.500,  0.597,  0.694,  0.791,  0.888,  0.985,  1.082,  1.179,  1.276,  1.373,  1.470,  1.567,  1.665,  1.762,  1.859,  1.956,  2.053,  2.150,  2.247,  2.344,  2.441,  2.538,  2.635,  2.732,  2.829,  2.926,  3.023,  3.120,  3.217,  3.314,  3.411,  3.508,  3.605,  3.702,  3.799,  3.896,  3.993,  4.090,  4.187,  4.284,  4.381,  4.478,  4.575,  4.672,  4.769,  4.866,  4.964,  5.061,  5.158,  5.255,  5.352,  5.449,  5.546,  5.643,  5.740,  5.837,  5.934,  6.031,  6.128,  6.225,  6.322,  6.419,  6.516,  6.613,  6.710,  6.807,  6.904,  7.001,  7.098,  7.195,  7.292,  7.389,  7.486,  7.583,  7.680,  7.777,  7.874,  7.971,  8.068,  8.165,  8.263,  8.360,  8.457,  8.554,  8.651,  8.748,  8.845,  8.942,  9.039,  9.136,  9.233,  9.330,  9.427,  9.524,  9.621
2008/10/29 00:00,  999.0,   -1.0,   -1.5,   -1.1,   -1.0,   -0.5,   -0.4,   -0.2,   -2.1,   -4.2,   -4.9,   -5.2,   -4.9,  999.0,   -4.7,   -5.5,  999.0,  999.0,   -6.2,   -6.7,   -6.2,   -5.8,   -5.5,   -5.8,   -5.3,   -5.0,   -4.9,   -6.3,   -6.7,  999.0,  999.0,  999.0,  999.0,   27.6,   27.1,   27.3,   26.6,   25.5,   25.2,   24.7,   23.6,  999.0,  999.0,  999.0,  999.0,  999.0,  999.0,  999.0,  -13.9,  999.0,  999.0,   -8.6,   -7.7,   -6.9,   -6.3,   -5.8,   -5.5,   -5.2,   -4.9,   -4.4,   -4.1,   -3.5,   -3.0,   -3.1,   -3.5,   -3.9,   -4.3,   -4.6,   -5.1,   -5.4,   -5.5,   -5.8,   -5.7,   -5.7,   -5.8,   -5.8,   -6.1,   -6.3,   -6.7,   -6.9,   -6.9,   -6.7,   -6.5,   -6.5,   -6.3,   -6.4,   -6.5,   -6.5,   -6.3,   -6.0,   -6.1,   -6.2,   -6.2,   -6.6,   -6.6,   -6.8,   -6.9,   -7.0
2008/10/29 00:10,    0.5,   -0.2,   -1.8,   -2.2,   -2.4,   -1.8,   -1.0,   -1.8,   -2.6,   -3.7,   -4.0,   -4.2,   -4.7,   -4.9,   -5.9,   -6.7,   -6.7,   -6.5,   -7.1,   -7.1,   -7.2,   -7.2,   -6.3,   -5.3,   -4.7,   -4.9,   -4.8,   -5.0,   -5.9,  999.0,  999.0,  999.0,   27.8,   27.6,   27.3,   26.8,   25.9,   25.2,   24.9,   24.3,   23.8,   24.1,   24.5,  999.0,  999.0,  999.0,  999.0,  -13.8,  -14.1,  -12.7,  -11.3,   -9.3,   -8.2,   -7.4,   -7.3,   -7.5,   -7.4,   -6.9,   -6.7,   -6.4,   -5.5,   -4.8,   -4.8,   -4.5,   -4.3,   -4.4,   -4.6,   -4.8,   -5.1,   -5.4,   -5.8,   -6.0,   -6.3,   -6.5,   -6.5,   -6.4,   -6.5,   -6.6,   -6.5,   -6.7,   -6.7,   -6.6,   -6.7,   -6.8,   -6.7,   -6.6,   -6.6,   -6.8,   -7.0,   -6.8,   -7.1,   -7.1,   -7.2,   -7.1,   -7.0,   -6.8,   -6.7,   -6.7
2008/10/29 00:20,    1.0,   -0.1,   -1.5,   -2.2,   -3.4,   -3.8,   -3.5,   -4.2,   -4.1,   -4.1,   -4.3,   -4.2,   -4.1,   -4.9,   -6.3,   -6.8,   -6.8,   -6.5,   -6.2,   -6.3,   -6.1,   -6.7,   -5.8,   -4.6,   -4.6,   -5.5,  999.0,  999.0,  999.0,  999.0,   27.4,   26.8,   27.2,   27.6,   27.1,   25.9,   25.7,   24.7,   24.5,   23.4,   22.5,  999.0,  999.0,  999.0,  999.0,  999.0,  999.0,  -14.0,  -13.7,  -12.0,  -10.6,   -8.9,   -8.7,   -8.7,   -8.9,   -9.5,   -9.4,   -8.9,   -8.5,   -8.4,   -8.0,   -7.5,   -7.4,   -7.2,   -7.1,   -6.8,   -6.9,   -7.1,   -7.0,   -7.0,   -6.9,   -6.7,   -6.7,   -6.5,   -6.3,   -5.8,   -5.6,   -5.5,   -5.5,   -5.7,   -5.9,   -5.6,   -5.6,   -5.5,   -5.4,   -5.4,   -5.5,   -5.5,   -5.6,   -5.7,   -5.8,   -6.0,   -6.3,   -6.5,   -6.7,   -6.7,   -6.8,   -6.6
2008/10/29 00:30,    0.5,   -0.3,   -1.3,   -2.8,   -3.3,   -3.8,   -4.5,   -4.1,   -4.3,   -5.3,   -5.1,   -4.7,   -5.0,   -5.6,   -6.4,   -6.3,   -6.7,   -5.8,  999.0,  999.0,  999.0,  999.0,  999.0,   -3.8,  999.0,  999.0,  999.0,   27.8,   27.2,   26.5,   25.9,   26.3,   27.0,   26.6,   26.2,   26.5,   26.2,   25.6,   24.9,   24.7,   24.5,   25.3,   24.8,  999.0,  999.0,  999.0,  999.0,  999.0,  -13.8,  -11.0,   -9.1,   -8.4,   -8.0,   -7.8,   -7.6,   -7.3,   -6.9,   -6.5,   -6.3,   -6.0,   -5.9,   -6.0,   -6.0,   -6.1,   -5.9,   -5.7,   -5.4,   -5.2,   -5.0,   -5.1,   -5.0,   -5.1,   -5.1,   -5.1,   -5.3,   -5.3,   -5.4,   -5.2,   -5.2,   -5.2,   -5.1,   -5.2,   -5.3,   -5.4,   -5.5,   -5.8,   -6.0,   -6.1,   -6.2,   -6.2,   -5.9,   -5.9,   -6.0,   -6.0,   -6.2,   -6.3,   -6.5,   -6.4
2008/10/29 00:40,    0.3,   -0.7,   -1.4,   -2.4,   -2.9,   -3.6,   -4.2,   -4.3,   -4.6,   -4.7,   -5.1,   -5.0,   -5.6,   -6.7,   -7.7,   -7.9,   -7.1,   -6.3,   -5.8,   -6.0,   -6.1,   -6.1,   -5.2,   -3.3,   -3.2,   -5.3,  999.0,  999.0,  999.0,  999.0,   25.8,   26.7,   26.9,   27.5,   27.9,   27.7,   27.0,   26.6,   26.4,   26.2,   25.9,   26.1,  999.0,  999.0,  999.0,  999.0,  999.0,  999.0,  999.0,  -11.7,   -9.6,   -8.3,   -7.9,   -7.7,   -7.7,   -7.7,   -7.5,   -7.2,   -7.1,   -6.8,   -6.4,   -6.3,   -6.2,   -5.9,   -5.9,   -5.8,   -5.8,   -5.9,   -6.0,   -6.1,   -6.3,   -6.4,   -6.6,   -6.7,   -6.8,   -7.0,   -7.4,   -7.7,   -7.9,   -7.9,   -7.7,   -7.5,   -7.4,   -7.3,   -7.1,   -7.2,   -7.4,   -7.4,   -7.3,   -7.0,   -7.0,   -6.6,   -6.4,   -6.4,   -6.6,   -6.6,   -6.4,   -6.4
2008/10/29 00:50,    0.1,   -0.5,   -0.7,   -1.6,   -2.1,   -3.0,   -3.5,   -4.8,   -5.2,   -5.4,   -5.7,   -6.0,   -6.6,   -5.9,   -5.7,   -5.8,   -5.8,   -5.4,   -5.6,   -5.6,   -5.7,   -4.4,   -4.2,   -4.1,   -3.8,   -3.8,   -5.8,  999.0,  999.0,  999.0,   25.3,   26.3,   26.5,   26.9,   28.2,   28.0,   26.8,   26.3,   26.0,   25.9,   25.6,  999.0,  999.0,  999.0,  999.0,  999.0,  999.0,  -12.0,  -12.6,  -11.8,  -11.2,  -10.9,  -10.6,  -10.4,  -10.2,   -9.7,   -9.0,   -8.6,   -8.3,   -8.0,   -7.9,   -7.5,   -7.5,   -7.8,   -8.0,   -8.0,   -7.8,   -7.8,   -7.5,   -7.3,   -7.4,   -7.3,   -7.1,   -7.1,   -7.1,   -7.2,   -7.5,   -7.4,   -7.1,   -6.9,   -6.8,   -7.0,   -7.2,   -7.1,   -6.9,   -6.7,   -6.5,   -6.0,   -5.5,   -5.1,   -4.9,   -4.9,   -5.0,   -5.3,   -5.6,   -6.1,   -6.0,   -6.2
2008/10/29 01:00,   -0.1,    0.1,   -0.9,    0.0,  999.0,   -2.7,   -2.8,   -1.2,   -3.1,   -4.0,   -4.7,   -6.1,   -6.6,   -6.9,   -7.0,   -5.3,   -4.6,   -5.0,  999.0,  999.0,  999.0,   -3.9,  999.0,  999.0,  999.0,  999.0,  999.0,  999.0,  999.0,  999.0,  999.0,  999.0,  999.0,  999.0,  999.0,  999.0,  999.0,  999.0,  999.0,  999.0,  999.0,  999.0,  999.0,  999.0,  999.0,  999.0,  999.0,  999.0,  999.0,  999.0,  999.0,  999.0,  999.0,  999.0,  999.0,  -10.7,  -10.2,   -9.7,   -9.2,   -9.2,   -9.3,   -8.8,   -8.2,   -8.2,   -8.1,   -8.1,   -7.6,   -7.2,   -7.3,   -6.5,   -6.2,   -6.3,   -6.3,   -6.4,  999.0,  999.0,  999.0,  999.0,   -6.6,   -6.3,   -6.7,   -7.0,   -7.0,   -7.0,   -7.0,   -6.7,  999.0,  999.0,   -6.2,   -5.8,   -5.9,   -6.1,   -6.9,   -7.4,   -8.0,   -8.7,   -9.0,  999.0
2008/10/29 01:10,  999.0,   -0.1,   -0.1,   -0.3,   -0.9,   -1.4,   -0.2,   -1.0,   -3.1,   -4.3,   -5.1,   -6.1,   -7.9,   -7.9,   -8.0,   -7.9,   -6.0,   -4.8,   -4.4,  999.0,   -4.7,   -3.7,   -3.6,  999.0,  999.0,  999.0,   -7.5,   -8.8,  999.0,  999.0,  999.0,  999.0,  999.0,   -8.9,   -8.6,  999.0,  999.0,  999.0,  999.0,  999.0,  999.0,  999.0,  999.0,  999.0,  999.0,  999.0,  999.0,  999.0,  999.0,  999.0,  999.0,  999.0,  -11.1,  999.0,  -11.1,  -10.4,  -10.1,   -9.5,   -9.0,   -9.0,   -8.9,   -8.9,   -8.4,   -7.5,   -6.9,   -6.9,   -6.9,  999.0,  999.0,  999.0,  999.0,  999.0,  999.0,  999.0,  999.0,  999.0,  999.0,  999.0,   -6.1,   -5.5,   -5.7,  999.0,   -6.1,   -5.8,   -6.1,   -5.9,   -6.1,   -6.4,   -6.2,   -6.9,   -6.8,   -7.3,   -7.8,   -8.3,   -8.1,   -8.1,   -8.2,   -8.6
2008/10/29 01:20,   -0.3,   -0.1,   -0.1,   -0.4,   -2.0,   -2.3,   -1.0,  999.0,   -4.0,   -5.4,   -5.1,   -5.4,   -6.2,   -6.6,   -6.9,   -7.4,   -7.4,  999.0,  999.0,  999.0,   -3.8,   -3.7,   -3.8,   -4.0,   -4.8,   -6.3,  999.0,  999.0,  999.0,  999.0,  999.0,  999.0,  999.0,  999.0,  999.0,  999.0,  999.0,   -9.0,  999.0,  999.0,  999.0,  999.0,  999.0,  999.0,  999.0,  999.0,  999.0,  999.0,  999.0,  999.0,  999.0,  999.0,  999.0,  999.0,  999.0,  999.0,  999.0,  999.0,  999.0,  999.0,  999.0,  999.0,  999.0,  999.0,  999.0,  999.0,  999.0,  999.0,  999.0,  999.0,  999.0,  999.0,  999.0,  999.0,  999.0,  999.0,  999.0,  999.0,  999.0,  999.0,  999.0,  999.0,  999.0,  999.0,  999.0,  999.0,  999.0,  999.0,  999.0,  999.0,  999.0,  999.0,   -7.2,   -7.4,   -7.5,   -7.7,   -8.2,   -8.5
2008/10/29 01:30,    0.8,   -0.3,   -0.0,   -0.2,   -1.3,   -1.5,  999.0,   -0.5,   -4.5,   -5.3,   -5.9,   -5.8,   -5.6,   -5.7,   -6.2,   -6.5,   -7.1,   -6.8,  999.0,  999.0,   -3.7,   -3.7,   -4.2,   -4.5,   -5.3,   -6.2,   -7.6,  999.0,  999.0,  999.0,  999.0,  999.0,  999.0,  999.0,  999.0,  999.0,  999.0,  999.0,  999.0,  999.0,  999.0,  999.0,  999.0,  999.0,  999.0,  999.0,  999.0,  999.0,  999.0,  999.0,  999.0,  999.0,  999.0,  999.0,  999.0,  999.0,  999.0,  999.0,  999.0,  999.0,  999.0,  999.0,  999.0,  999.0,  999.0,  999.0,  999.0,  999.0,  999.0,  999.0,  999.0,  999.0,  999.0,  999.0,  999.0,  999.0,  999.0,  999.0,  999.0,  999.0,  999.0,  999.0,  999.0,  999.0,  999.0,  999.0,  999.0,  999.0,  999.0,  999.0,  999.0,   -7.1,  999.0,  999.0,   -7.6,  999.0,  999.0,  999.0
2008/10/29 01:40,  999.0,   -0.9,   -0.1,   -0.5,   -1.0,   -1.1,   -0.8,   -2.4,   -4.4,   -5.5,   -6.5,   -6.6,   -6.6,   -6.4,   -6.8,   -7.5,   -7.1,  999.0,  999.0,   -5.2,   -4.8,   -4.5,   -4.8,   -5.5,  999.0,   -7.4,  999.0,  999.0,  999.0,  999.0,  999.0,  999.0,  999.0,  999.0,  999.0,  999.0,  999.0,  999.0,  999.0,  999.0,  999.0,  999.0,  999.0,  999.0,  999.0,  999.0,  999.0,  999.0,  999.0,  999.0,  999.0,  999.0,  999.0,  999.0,  999.0,  999.0,  999.0,  999.0,  999.0,  999.0,  999.0,  999.0,  999.0,  999.0,  999.0,  999.0,  999.0,  999.0,  999.0,  999.0,  999.0,  999.0,  999.0,  999.0,  999.0,  999.0,  999.0,  999.0,  999.0,  999.0,  999.0,  999.0,  999.0,  999.0,  999.0,  999.0,  999.0,  999.0,  999.0,  999.0,  999.0,  999.0,  999.0,  999.0,  999.0,  999.0,  999.0,  999.0
2008/10/29 01:50,  999.0,   -1.7,   -0.3,   -1.0,   -2.0,   -0.9,   -0.3,   -0.7,   -4.7,   -5.5,   -6.4,   -7.0,   -6.7,   -6.9,   -7.1,   -7.3,   -6.3,  999.0,   -6.2,  999.0,   -5.2,   -5.8,   -5.8,   -6.2,   -6.1,   -7.2,  999.0,  999.0,  999.0,  999.0,  999.0,  999.0,  999.0,  999.0,  999.0,  999.0,  999.0,  999.0,  999.0,  999.0,  999.0,  999.0,  999.0,  999.0,  999.0,  999.0,  999.0,  999.0,  999.0,  999.0,  999.0,  999.0,  999.0,  999.0,  999.0,  999.0,  999.0,  999.0,  999.0,  999.0,  999.0,  999.0,  999.0,  999.0,  999.0,  999.0,  999.0,  999.0,  999.0,  999.0,  999.0,  999.0,  999.0,  999.0,  999.0,  999.0,  999.0,  999.0,  999.0,  999.0,  999.0,  999.0,  999.0,  999.0,  999.0,  999.0,  999.0,  999.0,  999.0,  999.0,  999.0,  999.0,  999.0,  999.0,  999.0,  999.0,  999.0,  999.0
2008/10/29 02:00,  999.0,  999.0,   -1.4,   -2.6,   -1.9,   -1.6,   -0.1,   -0.5,  999.0,   -5.5,  999.0,  999.0,   -7.2,   -6.8,   -7.2,  999.0,  999.0,  999.0,  999.0,   -5.0,   -5.5,   -6.6,  999.0,  999.0,  999.0,   -7.2,  999.0,  999.0,  999.0,  999.0,  999.0,  999.0,  999.0,  999.0,  999.0,  999.0,  999.0,  999.0,  999.0,  999.0,  999.0,  999.0,  999.0,  999.0,  999.0,  999.0,  999.0,  999.0,  999.0,  999.0,  999.0,  999.0,  999.0,  999.0,  999.0,  999.0,  999.0,  999.0,  999.0,  999.0,  999.0,  999.0,  999.0,  999.0,  999.0,  999.0,  999.0,  999.0,  999.0,  999.0,  999.0,  999.0,  999.0,  999.0,  999.0,  999.0,  999.0,  999.0,  999.0,  999.0,  999.0,  999.0,  999.0,  999.0,  999.0,  999.0,  999.0,  999.0,  999.0,  999.0,  999.0,  999.0,  999.0,  999.0,  999.0,  999.0,  999.0,  999.0
2008/10/29 02:10,  999.0,   -2.8,   -1.1,   -2.4,   -1.8,   -1.5,   -0.2,  999.0,  999.0,   -5.7,   -6.5,   -7.3,   -7.7,   -6.7,   -7.3,   -7.1,   -7.1,  999.0,   -6.2,   -5.5,   -5.5,   -6.2,  999.0,  999.0,  999.0,  999.0,   -7.4,  999.0,  999.0,  999.0,  999.0,  999.0,  999.0,  999.0,  999.0,  999.0,  999.0,  999.0,  999.0,  999.0,  999.0,  999.0,  999.0,  999.0,  999.0,  999.0,  999.0,  999.0,  999.0,  999.0,  999.0,  999.0,  999.0,  999.0,  999.0,  999.0,  999.0,  999.0,  999.0,  999.0,  999.0,  999.0,  999.0,  999.0,  999.0,  999.0,  999.0,  999.0,  999.0,  999.0,  999.0,  999.0,  999.0,  999.0,  999.0,  999.0,  999.0,  999.0,  999.0,  999.0,  999.0,  999.0,  999.0,  999.0,  999.0,  999.0,  999.0,  999.0,  999.0,  999.0,  999.0,  999.0,  999.0,  999.0,  999.0,  999.0,  999.0,  999.0
2008/10/29 02:20,  999.0,  999.0,   -1.0,   -2.0,   -1.7,   -1.0,   -0.1,  999.0,   -3.7,   -5.5,   -6.3,   -6.9,   -7.4,   -7.3,   -6.9,   -6.6,   -6.5,   -5.6,   -5.7,   -5.3,  999.0,   -5.1,   -5.8,  999.0,  999.0,  999.0,  999.0,  999.0,  999.0,  999.0,  999.0,  999.0,  999.0,  999.0,  999.0,  999.0,  999.0,  999.0,  999.0,  999.0,  999.0,  999.0,  999.0,  999.0,  999.0,  999.0,  999.0,  999.0,  999.0,  999.0,  999.0,  999.0,  999.0,  999.0,  999.0,  999.0,  999.0,  999.0,  999.0,  999.0,  999.0,  999.0,  999.0,  999.0,  999.0,  999.0,  999.0,  999.0,  999.0,  999.0,  999.0,  999.0,  999.0,  999.0,  999.0,  999.0,  999.0,  999.0,  999.0,  999.0,  999.0,   -8.6,   -9.1,   -9.3,   -9.3,   -9.5,   -9.3,   -8.8,   -8.3,   -8.4,  999.0,  999.0,   -8.5,  999.0,  999.0,  999.0,  999.0,  999.0
2008/10/29 02:30,  999.0,  999.0,  999.0,   -3.7,   -3.1,   -2.5,   -1.3,   -2.5,   -4.4,   -5.2,   -5.9,   -5.6,   -6.4,   -6.4,   -6.3,   -6.1,   -6.0,   -5.2,   -5.6,   -5.2,   -4.7,  999.0,   -5.0,  999.0,  999.0,   -6.4,  999.0,  999.0,  999.0,  999.0,  999.0,  999.0,  999.0,  999.0,  999.0,  999.0,  999.0,  999.0,  999.0,  999.0,  999.0,  999.0,  999.0,  999.0,  999.0,  999.0,  999.0,  999.0,  999.0,  999.0,  999.0,  999.0,  999.0,  999.0,  999.0,  999.0,  999.0,  999.0,  999.0,  999.0,  999.0,  999.0,  999.0,  999.0,  999.0,  999.0,  999.0,  999.0,  999.0,  999.0,  999.0,  999.0,  999.0,  999.0,  999.0,  999.0,  999.0,  999.0,  999.0,  999.0,  999.0,  999.0,  999.0,  999.0,  999.0,   -8.5,   -8.2,   -8.4,   -7.8,   -8.1,   -7.8,   -8.1,  999.0,  999.0,  999.0,  999.0,  999.0,  999.0
2008/10/29 02:40,  999.0,  999.0,  999.0,  999.0,   -2.7,   -3.7,   -1.8,   -2.9,   -3.5,   -4.5,   -6.0,   -5.2,   -5.3,   -5.5,   -5.6,   -5.3,   -5.7,   -4.9,   -5.0,   -5.3,  999.0,  999.0,  999.0,  999.0,  999.0,   -7.0,   -8.1,  999.0,  999.0,  999.0,  999.0,  999.0,  999.0,  999.0,  999.0,  999.0,  999.0,  999.0,  999.0,  999.0,  999.0,  999.0,  999.0,  999.0,  999.0,  999.0,  999.0,  999.0,  999.0,  999.0,  999.0,  999.0,  999.0,  999.0,  999.0,  999.0,  999.0,  999.0,  999.0,  999.0,  999.0,  999.0,  999.0,  999.0,  999.0,  999.0,  999.0,  999.0,  999.0,  999.0,  999.0,  999.0,  999.0,  999.0,  999.0,  999.0,  999.0,  999.0,  999.0,  999.0,  999.0,  999.0,  999.0,   -9.0,  999.0,   -8.7,  999.0,  999.0,  999.0,  999.0,  999.0,  999.0,  999.0,  999.0,  999.0,  999.0,  999.0,  999.0
2008/10/29 02:50,  999.0,  999.0,  999.0,  999.0,   -2.1,   -2.4,   -1.9,   -2.4,   -3.5,   -4.4,   -4.8,   -5.3,   -5.1,   -5.2,   -5.1,   -5.3,   -5.9,  999.0,   -4.7,   -5.2,  999.0,  999.0,  999.0,   -6.7,  999.0,   -7.2,   -7.3,   -8.2,  999.0,  999.0,  999.0,  999.0,  999.0,  999.0,  999.0,  999.0,  999.0,  999.0,  999.0,  999.0,  999.0,  999.0,  999.0,  999.0,  999.0,  999.0,  999.0,  999.0,  999.0,  999.0,  999.0,  999.0,  999.0,  999.0,  999.0,  999.0,  -10.5,   -9.7,   -9.6,  999.0,  999.0,  999.0,  999.0,  999.0,  999.0,  999.0,  999.0,  999.0,  999.0,  999.0,  999.0,  999.0,  999.0,  999.0,  999.0,  999.0,  999.0,  999.0,  999.0,  999.0,  999.0,  999.0,  999.0,  999.0,  999.0,  999.0,  999.0,  999.0,  999.0,  999.0,  999.0,  999.0,  999.0,  999.0,  999.0,  999.0,  999.0,  999.0
2008/10/29 03:00,  999.0,  999.0,  999.0,  999.0,   -1.4,   -1.5,   -2.0,  999.0,  999.0,   -3.6,  999.0,  999.0,   -5.0,   -5.5,   -4.7,   -5.3,   -4.6,   -5.1,   -5.1,  999.0,  999.0,   -5.4,   -6.9,   -7.8,   -8.3,   -7.5,   -9.8,   -9.5,  -11.5,  -10.1,  -10.2,  -10.0,   -9.3,   -9.5,   -9.5,  -10.2,  -11.7,  -12.6,  -13.3,  -13.2,  -13.0,  -12.9,  -12.5,  -12.5,  -12.4,  -12.7,  999.0,  -12.4,  -13.8,  -13.5,  -12.3,  -12.0,  -11.7,  -11.8,  -12.1,  -11.9,  -11.5,  -11.0,  -10.6,  -10.6,   -9.7,   -9.7,   -9.0,   -8.7,   -8.4,  999.0,  999.0,  999.0,  999.0,  999.0,  999.0,  999.0,  999.0,  999.0,  999.0,  999.0,  999.0,  999.0,  999.0,  999.0,  999.0,  999.0,  999.0,  999.0,  999.0,  999.0,  999.0,  999.0,  999.0,  999.0,  999.0,  999.0,  999.0,  999.0,  999.0,  999.0,  999.0,  999.0
2008/10/29 03:10,  999.0,  999.0,   -0.9,   -1.4,   -2.6,   -2.7,   -2.2,   -1.8,   -1.9,   -2.6,   -3.4,   -3.6,   -4.0,   -4.3,   -4.5,   -3.9,   -4.6,   -4.6,   -4.9,   -4.9,   -4.9,   -5.6,   -7.2,   -7.7,   -7.8,   -8.1,   -7.7,   -8.3,   -8.2,   -9.3,   -9.7,   -9.9,   -9.2,   -9.4,   -9.6,  -10.7,  -11.8,  -13.0,  -13.0,  -12.4,  -12.9,  -12.4,  -12.7,  -11.3,  -13.7,  -13.3,  -12.4,  -13.1,  -14.5,  -13.7,  -12.8,  -12.3,  -12.7,  999.0,  -12.6,  -12.1,  999.0,  999.0,  -11.7,  999.0,  999.0,  999.0,  999.0,  999.0,  999.0,  999.0,  999.0,  999.0,  999.0,  999.0,  999.0,  999.0,  999.0,  999.0,  999.0,  999.0,  999.0,  999.0,  999.0,  999.0,  999.0,  999.0,  999.0,  999.0,  999.0,  999.0,  999.0,  -10.0,  999.0,  999.0,  999.0,  999.0,  999.0,  999.0,  999.0,  999.0,  999.0,  999.0
2008/10/29 03:20,  999.0,   -0.7,   -0.1,   -0.5,   -1.8,   -2.2,   -2.7,   -2.7,   -1.5,   -2.2,   -3.0,   -4.0,   -4.9,   -5.0,   -5.5,   -4.8,   -4.4,   -4.6,   -5.3,   -5.7,   -6.1,   -6.1,  999.0,   -8.3,   -8.9,   -8.8,   -8.5,   -8.3,   -8.6,   -9.8,   -9.9,   -7.9,   -8.8,   -8.2,   -9.2,  -10.7,  -12.1,  -13.2,  -12.2,  -12.1,  -11.9,  -11.9,  -12.6,  -12.7,  -13.4,  -11.8,  -11.6,  999.0,  -13.6,  -13.1,  -12.4,  -12.4,  -12.4,  -12.5,  -12.2,  -12.0,  -12.0,  -11.5,  -11.5,  -11.5,  999.0,  999.0,  999.0,  999.0,  999.0,  999.0,  999.0,  999.0,  999.0,  999.0,  999.0,  999.0,  999.0,  999.0,  999.0,  999.0,  999.0,  999.0,  999.0,  999.0,  999.0,  999.0,  999.0,  999.0,  999.0,  999.0,  999.0,  999.0,  999.0,  999.0,  999.0,  999.0,  999.0,  999.0,  999.0,  999.0,  999.0,  999.0
2008/10/29 03:30,    1.5,    1.2,    0.7,   -0.7,   -1.2,   -0.6,   -1.3,   -2.2,   -1.7,   -2.2,   -3.2,   -4.9,   -5.9,   -5.7,   -4.6,   -4.4,   -4.0,   -3.8,   -3.9,   -4.2,   -4.7,   -5.5,   -7.1,   -8.3,   -8.3,   -8.1,   -6.3,   -7.8,   -8.0,   -7.2,   -7.7,  999.0,  999.0,  999.0,   23.8,   23.2,   24.0,   24.0,   23.7,  999.0,  999.0,  999.0,  999.0,  999.0,  999.0,  999.0,  999.0,  999.0,  -10.8,  -10.8,  -11.3,  -11.4,  -11.5,  -11.5,  -11.2,  -11.2,  -11.3,  -11.4,  -12.0,  -12.3,  -12.1,  -12.1,  -11.9,  -11.5,  -11.5,  -11.4,  -10.8,  -10.4,  -10.3,  -10.4,   -9.9,   -9.9,  999.0,   -9.5,  -10.0,  -10.4,  -10.8,  -11.4,  999.0,  999.0,  999.0,  999.0,  999.0,  999.0,  999.0,  999.0,  999.0,  999.0,  999.0,  999.0,  999.0,  999.0,  999.0,  999.0,  999.0,  999.0,  999.0,  999.0
2008/10/29 03:40,    1.4,    1.1,    0.3,    0.0,   -0.1,   -0.5,   -0.6,   -1.5,   -1.8,   -2.0,   -3.0,   -4.0,   -4.8,   -5.1,   -5.4,   -5.6,   -4.5,   -4.4,   -4.5,   -4.8,   -5.2,   -6.3,   -7.5,   -7.9,   -7.9,   -6.7,   -6.5,   -7.2,   -6.6,   -5.1,   -6.0,  999.0,  999.0,  999.0,   15.3,   15.7,   16.2,   16.5,   17.1,   16.4,    3.0,   13.9,  999.0,  -10.1,   -8.4,  999.0,  999.0,  999.0,  -11.4,  -11.0,   -9.8,   -9.2,   -9.4,   -9.6,   -9.9,  -10.2,  -10.7,  -11.1,  -11.3,  -11.4,  -11.7,  -11.7,  -11.8,  -11.5,  -11.6,  -11.8,  -11.9,  -12.0,  -11.8,  -11.9,  -12.3,  -12.0,  -11.3,  -11.7,  -11.9,  -11.9,  -11.9,  -11.8,  -12.2,  -11.0,  -10.9,  -10.4,  -10.6,  -10.6,  -10.8,  999.0,  999.0,  999.0,  999.0,  999.0,  999.0,  999.0,  999.0,  999.0,   -8.6,   -9.4,   -9.1,   -9.5
2008/10/29 03:50,    1.8,    1.6,    1.2,    0.9,    0.7,   -0.4,   -0.8,   -1.5,   -2.3,   -2.9,   -3.8,   -4.6,   -5.3,   -5.5,   -6.4,   -5.7,   -4.8,   -5.1,   -5.5,   -4.8,   -6.8,   -8.2,   -8.3,   -9.7,   -9.5,   -9.2,   -8.2,   -8.7,   -8.5,   -7.1,   -6.3,  999.0,   -8.1,   -9.1,  -10.2,    1.2,   -1.1,   -2.5,   -2.3,   -1.2,   -9.0,  -10.4,   -8.5,   -7.4,   -7.0,   -7.6,   -8.7,   -9.1,   -9.4,  -10.2,  -10.7,  -10.6,   -9.9,   -9.7,   -9.4,   -9.5,   -9.9,  -10.1,  -10.4,  -10.3,   -9.9,   -9.6,   -9.5,   -9.5,   -9.4,   -9.6,  -10.0,  -10.7,  -10.4,  -10.5,  -10.7,  -10.7,  -10.6,  -10.7,  -10.8,  -11.1,  -11.2,  -11.3,  -11.3,  -11.4,  -11.6,  -11.8,  -12.1,  -12.3,  -12.3,  -12.2,  -12.2,  -11.8,  -11.8,  -11.6,  -11.3,  -11.1,  -10.5,   -9.9,   -9.8,   -9.7,   -9.7,   -9.8
2008/10/29 04:00,    2.8,    2.8,    2.2,    1.7,    0.5,   -0.5,   -0.6,   -1.4,   -2.0,   -2.5,   -3.8,   -4.7,   -5.1,   -5.3,   -5.6,   -5.7,   -5.0,   -4.8,   -4.9,  999.0,  999.0,  999.0,  999.0,   10.1,   10.7,  999.0,   11.4,   11.4,   19.6,   16.3,   26.8,   26.5,   24.7,   23.7,   22.9,   22.5,   22.3,   21.9,   23.2,   19.5,   22.2,  999.0,  999.0,  999.0,  999.0,  999.0,  999.0,  999.0,  -10.6,  -11.8,  -12.4,  -11.9,  -10.7,  -10.0,   -9.7,   -9.4,   -9.1,   -9.3,   -9.3,   -9.7,   -9.8,  -10.4,  -10.8,  -11.0,  -11.5,  -12.2,  -12.6,  -12.9,  -12.9,  -12.9,  -13.2,  -13.3,  -13.8,  -13.7,  -13.9,  -14.1,  -14.4,  -13.7,  -13.1,  -13.1,  -12.7,  -12.3,  -12.2,  -12.0,  -11.5,  -11.7,  -11.0,  -11.1,  -11.2,  -11.0,  -11.2,  -11.3,  -11.4,  -11.0,  -10.9,  -10.7,  -10.7,  -10.7
2008/10/29 04:10,  999.0,    3.6,    3.2,    2.7,    1.0,   -0.1,   -0.4,   -1.6,   -1.9,   -2.1,   -3.3,   -3.8,   -4.2,   -4.1,   -4.4,   -5.6,   -5.0,   -4.4,   -4.6,   -6.0,  999.0,  999.0,  999.0,   27.9,   27.6,   28.7,   28.9,   29.5,   29.2,   29.1,   27.7,   26.7,   26.6,   26.9,   26.3,   25.2,   24.2,   24.4,   24.1,   23.6,   23.7,   25.6,  999.0,  999.0,  999.0,  999.0,  -10.9,  -11.3,  -11.6,  -11.4,  -10.3,   -9.7,   -9.2,   -8.6,   -8.7,   -9.2,   -9.6,   -9.7,   -9.2,   -9.4,   -8.8,   -8.9,   -9.2,  -10.1,  -10.4,  -10.8,  -11.0,  -12.1,  -12.1,  -12.7,  -12.4,  -12.3,  -12.3,  -11.7,  -11.5,  -10.9,  -10.4,   -8.9,  -10.0,   -9.8,   -9.8,   -9.8,  -10.3,  -10.7,  -10.9,  -11.3,  -10.7,  -10.7,  -10.7,  -10.5,  -10.5,  -10.2,   -9.8,   -9.4,   -9.5,   -9.3,   -9.9,  -10.1
2008/10/29 04:20,    3.2,    3.6,    3.9,    2.5,    1.9,    0.9,   -0.1,   -1.2,   -1.7,   -1.9,   -3.0,   -3.2,   -3.4,   -4.3,   -4.3,   -4.6,  999.0,  999.0,   -5.7,  999.0,   -5.7,   -4.8,  999.0,   -5.3,   -5.1,   -4.7,   -3.8,   -4.1,   -5.1,  999.0,  999.0,    5.3,   14.0,   13.7,   13.1,   12.6,   11.7,   -8.5,    2.7,    8.8,    4.1,  999.0,   -7.6,  999.0,  999.0,  999.0,  -11.2,  -11.2,  -11.2,  -11.5,  -10.7,   -9.4,   -8.9,   -8.8,   -9.2,   -9.3,   -9.3,   -9.2,   -9.0,   -9.1,   -9.3,  -10.1,  -10.5,  -10.8,  -10.6,  -10.7,  -10.9,  -10.9,  -10.7,  -10.6,  -10.4,  -10.4,  -10.1,  -10.2,  -10.2,  -10.3,  -10.0,   -9.7,   -9.4,   -9.3,   -8.3,   -8.5,   -8.6,   -8.4,   -8.5,   -8.6,   -8.3,   -7.9,   -8.0,   -8.4,   -8.6,   -8.2,   -8.4,   -8.1,   -7.7,   -7.5,   -7.3,   -7.3
2008/10/29 04:30,    3.2,    3.4,    4.0,    3.1,    2.1,    1.6,    1.0,   -0.1,   -1.4,   -2.2,   -2.4,   -3.0,   -2.9,   -2.6,   -2.6,   -2.9,   -3.0,   -3.3,   -3.8,   -4.0,   -4.3,   -4.8,   -5.3,   -4.4,   -4.2,   -3.5,   -4.5,   -4.0,   -5.0,   -5.4,   -6.5,   -7.8,   -8.4,   -7.1,   -8.5,   -8.4,   -9.9,  999.0,  -11.1,  999.0,   -5.6,   -7.0,   -6.8,   -7.7,   -8.1,   -9.9,  -10.3,  -10.3,  -11.0,  -11.6,  -11.4,  -10.8,  -10.2,  -10.2,  -10.2,  -10.0,  -10.1,  -10.3,  -10.5,  -10.7,  -10.7,  -10.6,  -10.6,  -10.5,  -10.1,  -10.1,  -10.1,  -10.1,  -10.1,  -10.1,  -10.0,  -10.0,  -10.0,  -10.1,  -10.1,  -10.5,  -10.3,  -10.3,  -10.4,  -10.1,  -10.5,  -10.3,   -9.8,   -9.8,   -9.4,   -8.9,   -8.9,   -8.4,   -8.4,   -8.1,   -8.2,   -8.5,   -8.2,   -8.5,   -8.6,   -7.9,   -7.9,   -7.9
2008/10/29 04:40,    3.2,    3.6,    4.4,    2.8,    2.1,    2.0,    1.3,   -0.5,   -2.1,   -2.4,   -3.0,   -3.9,   -4.0,   -4.7,   -5.0,   -4.4,   -4.0,   -4.3,   -4.8,   -5.0,   -6.1,   -6.7,   -7.1,   -7.1,   -6.0,   -4.8,   -5.7,   -6.8,   -8.2,   -8.6,   -9.1,   -9.7,   -9.7,  -10.9,  -12.3,  -12.8,  -12.0,  -11.7,  -10.9,  -10.2,  -10.1,  -10.0,  -10.1,  -10.7,  -11.0,  -11.5,  -11.6,  -12.5,  -12.8,  -12.1,  -12.0,  -12.1,  -12.1,  -11.8,  -11.8,  -11.7,  -11.8,  -11.9,  -12.2,  -12.5,  -12.7,  -12.8,  -12.6,  -12.2,  -12.0,  -11.8,  -11.7,  -11.6,  -11.4,  -11.5,  -10.4,  -10.7,  -10.9,  -11.8,  -11.9,  -11.5,  -12.0,  -11.5,  -11.6,  -11.6,  -11.8,  -12.1,  -11.8,  -12.2,  -11.3,   -8.6,  -10.0,   -9.2,   -6.7,   -7.7,   -7.1,   -6.4,   -5.8,   -5.6,   -5.9,   -6.0,   -5.6,   -5.5
2008/10/29 04:50,    2.9,    3.8,    4.1,    2.5,    2.2,    1.7,    0.6,   -1.0,   -2.7,   -3.9,   -4.0,   -5.0,   -5.4,   -5.3,   -4.5,   -4.2,   -4.2,   -4.4,   -4.9,   -5.9,   -6.6,   -7.5,   -8.3,   -9.3,   -8.0,   -7.4,   -6.9,   -7.0,   -8.1,   -9.3,   -9.1,   -9.3,   -9.7,  -10.4,  -10.7,  -11.2,  -11.9,    5.4,   -9.2,   -8.9,   -9.5,   -9.3,   -8.6,   -8.3,   -8.4,   -9.0,   -9.0,   -9.7,   -9.8,   -9.7,   -9.2,   -9.4,   -9.8,   -9.9,  -10.1,  -10.4,  -10.8,  -11.2,  -11.6,  -11.3,  -11.2,  -11.2,  -11.0,  -11.1,  -11.3,  -11.1,  -11.5,  -11.4,  -12.0,  -12.6,  -12.4,  -12.2,  -12.0,  -11.8,  -11.4,  -11.6,  -11.9,  -11.5,  -11.1,  -10.5,   -9.8,  -10.0,   -9.9,   -9.8,  -10.1,   -9.9,   -9.7,  -10.3,  -11.2,   -9.4,   -7.7,   -9.1,   -8.9,   -8.5,   -8.0,   -8.3,   -7.3,   -8.0
2008/10/29 05:00,    2.7,    3.4,    3.1,    2.2,    2.1,    1.2,    0.3,   -1.6,   -2.8,   -3.4,   -3.8,   -4.9,   -5.7,   -5.4,   -4.0,   -3.8,   -4.4,   -5.0,   -5.7,   -6.1,   -7.9,   -8.4,   -8.0,   -8.3,    9.3,   15.8,  999.0,   27.5,  999.0,   26.2,   25.7,   25.0,   23.9,   22.8,   22.6,   22.6,   23.4,   22.9,   22.3,   22.7,   23.3,  999.0,  999.0,  999.0,  999.0,  -10.0,  999.0,   -9.1,   -9.5,   -9.7,   -9.6,   -9.6,   -9.7,   -9.8,   -9.7,  -10.1,   -9.7,   -9.6,   -9.2,   -8.7,   -8.4,   -8.5,   -8.7,   -8.7,   -8.2,   -8.0,   -8.0,   -7.2,   -7.6,   -8.0,   -8.3,   -9.7,  -10.3,  -10.3,  -10.9,  -11.0,  -11.8,  -11.0,  -10.8,   -9.1,   -8.7,   -8.6,  -10.6,   -8.7,  -10.0,   -9.4,  999.0,   -6.9,   -4.7,  999.0,  999.0,   -8.8,   -7.4,   -8.0,   -8.0,   -8.2,   -8.3,   -7.8
2008/10/29 05:10,    3.3,    3.2,    2.8,    2.1,    2.7,    1.8,    0.6,   -0.7,   -2.3,   -4.1,   -4.3,   -5.8,   -5.1,   -4.7,   -4.1,   -3.6,    9.4,   18.4,   17.1,   20.6,   20.3,   26.3,   26.8,   27.1,   27.4,   27.4,   28.2,   27.4,   25.7,   25.6,   24.3,   23.3,   22.7,   21.9,   22.3,   22.7,   23.7,   23.9,   23.6,   24.1,   25.1,  999.0,  999.0,  999.0,  999.0,  -10.3,  -11.1,  -11.4,  -11.5,  -10.5,  -10.4,  -10.8,  -10.8,  -11.4,  -11.7,  -11.9,  -12.1,  -12.1,  -12.4,  -12.0,  -12.2,  -12.0,  -11.9,  -11.7,  -11.6,  -11.7,  -11.6,  -11.5,  -11.7,  -11.8,  -11.9,  -12.1,  -12.0,  -12.2,  -12.1,  -12.2,  -12.4,  -12.3,  -11.5,  -12.3,  -11.8,  -12.0,  -12.1,  -11.1,   -9.8,  -12.8,   -6.3,   -9.1,   -6.8,   -8.7,   -9.3,   -9.6,   -8.8,   -8.8,   -8.3,   -9.5,   -9.5,   -8.3
2008/10/29 05:20,    4.4,    3.9,    4.3,    3.6,    2.9,    2.2,    0.7,   -1.1,   -2.4,   -2.9,   -4.1,   -3.8,   -4.9,   -4.8,   -4.9,   -5.5,  999.0,  999.0,   17.6,   16.9,   16.8,   15.8,   16.0,   16.5,   29.2,   28.4,   28.1,   27.6,   27.0,   26.3,   25.6,   25.9,   25.0,   24.8,   26.0,   26.0,   26.7,   26.8,   27.4,   26.1,  999.0,   25.1,  999.0,  999.0,  999.0,  999.0,  -13.1,  -13.6,  -13.5,  -13.3,  -12.5,  -12.3,  -12.1,  -11.9,  -11.6,  -11.3,  -11.2,  -11.4,  -11.4,  -11.5,  -11.5,  -11.3,  -10.8,  -11.4,  -10.8,  -10.8,  -10.7,  -10.7,  -10.4,  -10.4,  -10.7,  -10.4,  -11.4,  -10.7,  -11.0,  -11.9,  -10.7,  -10.9,  -11.8,  -11.7,  -11.8,  -12.0,  -13.0,  -12.4,  -12.8,  -13.4,  -12.8,  -13.6,  -12.4,  -11.3,  -10.9,  -10.9,  -10.2,  -11.0,  -10.2,  -10.6,  999.0,   -8.7
2008/10/29 05:30,    3.3,    2.5,    3.4,    2.1,    3.0,    2.1,    1.3,    1.1,    1.1,   -0.2,   -0.9,   -2.7,   -3.5,   -4.7,   -4.7,   -5.2,   -5.1,   -4.5,   -5.1,   -5.4,   -5.5,   -5.4,   -5.5,   -6.4,  999.0,  999.0,  999.0,   24.8,   24.7,   24.9,   25.0,   24.9,   24.6,   23.6,   25.4,   24.9,   24.2,   24.3,   25.9,   26.4,  999.0,  999.0,  999.0,  999.0,  999.0,  -10.0,  -11.8,  -12.8,  -13.3,  -13.2,  -13.1,  -13.3,  -13.2,  -13.0,  -12.9,  -12.5,  -12.0,  -11.3,  -10.9,  -10.4,   -9.5,   -9.7,   -9.5,   -9.6,   -9.6,   -9.2,   -9.1,   -9.4,   -9.0,   -9.2,   -9.1,   -9.2,   -9.3,   -9.5,   -9.5,   -9.7,   -9.8,   -9.9,   -9.0,   -9.6,  -10.3,  999.0,  -11.1,   -6.3,   -6.1,   -6.4,   -6.4,   -7.2,   -8.1,   -8.4,   -7.6,   -7.9,  999.0,   -8.5,   -8.0,   -7.2,   -6.8,   -6.7
2008/10/29 05:40,  999.0,    2.6,    2.7,    2.0,    1.5,    1.6,    0.7,    0.0,   -0.5,   -1.2,   -1.1,   -1.8,   -2.7,   -4.0,   -4.5,   -5.4,   -5.5,   -6.3,   -5.9,   -6.7,   -6.1,   -6.0,   -6.7,  999.0,  999.0,   27.0,   27.4,   28.7,   28.5,   28.9,   27.8,   27.9,   28.1,   28.1,   28.8,   28.1,   28.3,   28.3,   28.8,   28.6,   28.3,   27.2,  999.0,  999.0,  999.0,  999.0,  -11.0,  -11.8,  -12.7,  -13.0,  -13.0,  -13.3,  -13.3,  -13.1,  -12.8,  -12.6,  -12.3,  -12.4,  -12.2,  -11.9,  -11.1,  -10.6,  -10.3,  -10.1,  -10.4,   -9.9,   -9.8,   -9.2,   -9.0,   -8.7,   -8.7,   -8.6,   -8.9,   -8.8,   -9.0,   -9.2,   -9.4,   -9.4,   -9.5,   -8.7,  999.0,   -9.8,  999.0,   -9.7,   -8.2,   -9.0,   -7.9,   -8.7,   -8.2,  999.0,  999.0,  999.0,   -6.9,   -7.0,  999.0,  999.0,   -6.2,   -6.5
2008/10/29 05:50,    3.8,    3.2,    3.3,    2.8,    2.1,    2.1,    1.1,   -0.3,   -1.4,   -2.1,   -1.6,   -3.1,   -2.2,  999.0,  999.0,  999.0,  999.0,   29.3,   28.7,   28.9,   28.5,   28.9,   29.6,   29.6,   29.1,   28.9,   29.0,   28.8,   28.4,   28.0,   27.2,   27.2,   26.8,   27.3,   27.2,   26.7,   26.7,   26.2,   27.1,   27.4,   26.8,   26.7,  999.0,  999.0,  999.0,  999.0,  -10.6,  -11.2,  -11.9,  -12.2,  -11.9,  -11.7,  -11.4,  -11.3,  -11.2,  -11.1,  -11.0,  -10.8,  -10.9,  -11.0,  -11.0,  -11.1,  -11.1,  -10.9,  -10.3,  -10.0,   -9.9,   -8.9,   -8.7,   -8.5,   -9.4,   -9.8,   -9.9,  -10.0,  -10.4,  -10.3,  -10.8,  -10.5,  -10.9,  -10.0,  -10.3,  -10.2,   -9.8,   -9.5,  -10.0,   -9.2,   -9.2,   -8.9,   -8.8,   -9.0,   -8.6,   -8.7,   -9.1,   -9.1,   -8.1,   -8.3,   -7.4,   -7.8
2008/10/29 06:00,    3.3,    3.7,    3.1,    2.2,    1.5,    0.7,   -0.6,   -0.8,   -1.3,   -1.3,   -1.8,   -2.5,   -2.8,   -2.5,   -1.8,   -0.8,   -1.9,   -3.3,   -4.2,   -5.4,    9.2,    9.7,    9.8,   13.3,   30.3,   30.2,   29.7,   27.9,   27.7,   28.3,   28.1,   27.6,   26.7,   25.8,   24.8,   24.4,   23.6,   22.8,   22.5,   22.1,   21.3,   22.5,   22.4,  999.0,  999.0,  999.0,  -12.6,  -13.0,  -13.5,  -13.2,  -12.7,  -12.1,  -11.5,  -11.0,  -10.8,  -10.9,  -11.0,  -10.8,  -10.6,  -10.4,   -9.6,   -9.2,   -9.1,   -8.9,   -8.8,   -8.5,   -8.4,   -8.5,   -8.6,   -8.7,   -8.8,   -8.9,   -8.9,   -9.2,   -9.0,   -9.2,   -9.1,   -8.8,   -8.9,   -8.8,   -8.7,   -8.9,   -8.6,   -8.9,   -9.1,   -9.0,   -8.8,   -8.3,   -7.9,   -7.9,   -7.6,   -7.7,   -7.5,   -7.4,   -7.4,   -7.0,   -6.7,   -6.8
2008/10/29 06:10,    3.7,    4.0,    2.9,    2.9,    0.7,   -0.8,   -1.6,   -1.8,   -1.4,   -2.2,   -2.6,   -3.1,   -2.5,   -2.2,   -2.6,   -2.2,   -2.2,   -3.3,   -3.6,   -3.1,   -3.0,   -2.8,   -3.2,   -3.5,   -3.3,   -4.3,   -4.6,   11.6,   11.4,   28.4,   27.9,   26.6,   24.7,   23.5,   24.6,   24.2,   23.5,   23.1,   22.3,   22.2,   21.7,   22.4,   21.7,  999.0,  999.0,  -12.0,  -14.0,  -14.7,  -14.4,  -13.9,  -12.5,  -12.4,  -11.6,  -10.7,  -10.2,   -9.9,   -9.5,   -9.1,   -8.3,   -7.7,   -7.9,   -7.7,   -7.5,   -7.6,   -7.5,   -7.5,   -7.5,   -7.8,   -8.0,   -8.0,   -8.1,   -8.7,   -8.9,   -9.3,   -8.7,   -9.7,   -8.6,   -9.0,   -9.3,   -9.7,  -10.2,  -10.6,  -10.4,  -10.4,  -10.1,  -10.4,   -9.6,   -9.5,   -9.6,   -9.7,   -9.3,   -9.0,   -8.3,   -7.9,   -7.7,  999.0,   -6.8,   -6.3
2008/10/29 06:20,    4.1,    4.1,    2.7,    2.0,   -0.3,   -1.5,   -1.9,   -2.4,   -2.3,   -3.2,   -2.8,   -3.5,   -4.0,  999.0,  999.0,   30.2,   31.5,  999.0,   31.6,   31.2,   29.4,   30.7,   30.6,   22.6,  999.0,   -1.4,   -1.4,   -1.8,   -1.9,   -2.7,  999.0,   21.0,   29.2,   29.9,   30.5,   18.1,   21.1,   12.5,   -3.6,   -4.4,   -3.6,   -4.9,   -5.1,   -7.9,  -10.3,   -9.6,  -11.8,  -12.1,  -12.9,  -13.1,  -13.5,  -13.8,  -13.6,  -13.0,  -12.1,  -11.9,  -12.0,  -12.1,  -11.7,  -12.6,  -11.4,  -11.1,  -10.9,  -10.4,   -9.8,   -9.3,   -8.5,   -8.5,   -8.5,   -8.7,   -8.6,   -8.3,   -8.4,   -9.6,  999.0,  999.0,   -9.1,   -8.9,   -6.2,   -6.9,   -7.7,   -7.7,   -8.5,   -8.3,   -8.1,   -7.3,   -7.5,   -7.6,   -7.5,   -7.4,   -8.1,   -8.2,   -8.3,   -8.0,   -8.4,   -7.9,   -7.9,   -8.1
2008/10/29 06:30,    2.7,    2.1,    2.6,    1.4,   -0.1,   -0.5,   -1.1,   -1.9,   -2.1,    1.0,    2.7,    2.4,   -0.3,    7.3,   -1.0,   -3.3,   -3.5,   -3.3,   -3.9,   -4.5,   -3.9,   -3.2,   -2.0,   -2.1,   -2.1,   -2.5,   -3.1,   -3.2,   -3.5,   -3.2,   -3.9,   -4.0,   -2.9,   13.3,    5.1,   -3.8,   -3.6,   -3.5,   -3.6,   -3.0,   -2.3,   -1.9,   -3.1,   -5.2,   -5.9,   -6.9,   -8.4,   -8.9,   -9.8,  -10.4,   -9.8,   -9.3,  -10.0,  -10.7,   -9.8,   -9.9,  -10.2,  -10.0,   -9.7,   -9.5,   -9.5,   -8.8,   -8.8,   -9.4,   -9.5,   -9.0,  -10.1,  -10.3,  -10.3,  -10.1,  -10.9,  -10.5,  -10.0,   -9.7,   -9.4,   -8.6,   -8.8,   -8.4,   -7.8,   -7.3,  999.0,  999.0,  999.0,  999.0,  999.0,  999.0,  999.0,  999.0,  999.0,   -9.3,  999.0,   -9.6,   -9.8,   -9.2,   -8.3,   -7.9,   -7.8,   -8.1
2008/10/29 06:40,    2.4,    2.4,    1.5,    0.4,   -0.1,   -0.5,   -0.3,   -1.6,   -2.5,   -3.3,   -3.6,   -4.2,   -4.1,   -3.6,   -3.3,   -4.2,   -3.1,   -3.4,   -3.3,   -2.6,   -1.7,   -1.2,   -0.6,   -1.4,   -2.5,   -3.2,   -2.6,   -3.4,   -3.3,   -3.5,   -4.1,   -3.8,   -4.0,   -3.9,   -4.1,   -4.1,   -3.8,   -4.2,   -3.7,   -3.6,   -3.0,   -6.0,   -5.0,   -5.1,   -6.8,   -5.8,   -5.5,   -6.2,   -6.6,   -8.0,   -7.0,   -6.2,   -8.0,   -8.5,   -8.3,   -7.9,   -9.1,   -9.9,   -9.7,   -9.8,   -9.5,   -8.8,   -8.6,  999.0,  999.0,  999.0,  999.0,  999.0,  -12.5,  -12.3,  999.0,  -12.0,  999.0,  999.0,  999.0,  999.0,  999.0,  999.0,  999.0,  999.0,  999.0,  999.0,  999.0,  999.0,  999.0,  999.0,  999.0,  999.0,  999.0,  999.0,  999.0,  999.0,  999.0,  999.0,  999.0,  999.0,  999.0,   -7.7
2008/10/29 06:50,    2.2,    1.4,   -0.4,   -0.9,   -0.9,   -1.5,   -2.0,   -2.3,   -3.6,   -4.5,   -4.7,   -4.8,   -4.5,   -4.6,   -4.6,   -3.3,   -2.0,   -1.1,   -0.5,   -1.0,   -0.9,   -1.0,   -1.3,   -1.8,   -2.1,   -1.2,   -1.3,   -0.8,   -1.7,   -1.2,   -0.4,  999.0,   -1.1,   -1.5,    1.0,  999.0,  999.0,  999.0,   -1.1,   -0.6,   -0.3,   -0.2,   -0.1,   -1.0,   -2.5,   -2.3,   -2.1,   -2.8,   -3.0,   -2.2,   -3.3,  999.0,  999.0,  999.0,  999.0,  999.0,  999.0,  999.0,  999.0,  999.0,  999.0,  999.0,  999.0,  999.0,  999.0,  999.0,  999.0,  999.0,  999.0,  999.0,  999.0,  999.0,  999.0,  999.0,  999.0,  999.0,  999.0,  999.0,  999.0,  999.0,  999.0,  999.0,  999.0,  999.0,  999.0,  999.0,  999.0,  999.0,  999.0,  999.0,  999.0,  999.0,  999.0,  999.0,  999.0,  999.0,  999.0,  999.0
2008/10/29 07:00,    3.3,    2.3,    1.6,    1.9,    0.9,    0.7,   -3.5,   -6.3,   -6.0,   -7.0,   -7.2,   -7.8,   -8.0,   -7.8,   -7.4,   -6.8,   -4.7,   -2.8,   -4.2,   -3.2,   -3.0,   -3.3,   -3.9,   -4.1,   -4.1,   -4.0,   -3.5,   -2.5,   -3.0,   -2.6,   -3.6,   -5.2,   -6.3,   -7.1,   -7.4,  999.0,  999.0,  999.0,  999.0,  999.0,  999.0,  999.0,  999.0,  999.0,  999.0,  999.0,  999.0,  999.0,  999.0,  999.0,  999.0,  999.0,  999.0,  999.0,  999.0,  999.0,  999.0,  999.0,  999.0,  999.0,  999.0,  999.0,  999.0,  999.0,  999.0,  999.0,  999.0,  999.0,  999.0,  999.0,  999.0,  999.0,  999.0,  999.0,  999.0,  999.0,  999.0,  999.0,  999.0,  999.0,  999.0,  999.0,  999.0,  999.0,  999.0,  999.0,  999.0,  999.0,  999.0,  999.0,  999.0,  999.0,  999.0,  999.0,  999.0,  999.0,  999.0,  999.0
2008/10/29 07:10,  999.0,  999.0,  999.0,  999.0,  999.0,  999.0,  999.0,  999.0,  999.0,  999.0,  999.0,  999.0,  999.0,  999.0,  999.0,  999.0,  999.0,  999.0,  999.0,  999.0,  999.0,  999.0,  999.0,  999.0,  999.0,  999.0,  999.0,  999.0,  999.0,  999.0,  999.0,  999.0,  999.0,  999.0,  999.0,  999.0,  999.0,  999.0,  999.0,  999.0,  999.0,  999.0,  999.0,  999.0,  999.0,  999.0,  999.0,  999.0,  999.0,  999.0,  999.0,  999.0,  999.0,  999.0,  999.0,  999.0,  999.0,  999.0,  999.0,  999.0,  999.0,  999.0,  999.0,  999.0,  999.0,  999.0,  999.0,  999.0,  999.0,  999.0,  999.0,  999.0,  999.0,  999.0,  999.0,  999.0,  999.0,  999.0,  999.0,  999.0,  999.0,  999.0,  999.0,  999.0,  999.0,  999.0,  999.0,  999.0,  999.0,  999.0,  999.0,  999.0,  999.0,  999.0,  999.0,  999.0,  999.0,  999.0
2008/10/29 07:20,  999.0,    6.6,  999.0,  999.0,  999.0,  999.0,    1.9,  999.0,   -4.6,   -0.5,   -1.1,   -2.7,   -1.0,   -0.5,   -0.5,   -0.8,   -2.1,  999.0,   -0.8,   -0.0,   -0.6,   -0.8,   -2.4,   -2.1,   -2.7,   -3.5,   -3.6,   -4.0,  999.0,   -3.7,   -3.1,   -4.2,   -5.7,  999.0,  999.0,  999.0,  999.0,  999.0,  999.0,  999.0,  999.0,  999.0,  999.0,  999.0,  999.0,  999.0,  999.0,  999.0,  999.0,  999.0,  999.0,  999.0,  999.0,  999.0,  999.0,  999.0,  999.0,  999.0,  999.0,  999.0,  999.0,  999.0,  999.0,  999.0,  999.0,  999.0,  999.0,  999.0,  999.0,  999.0,  999.0,  999.0,  999.0,  999.0,  999.0,  999.0,  999.0,  999.0,  999.0,  999.0,  999.0,  999.0,  999.0,  999.0,  999.0,  999.0,  999.0,  999.0,  999.0,  999.0,  999.0,  999.0,  999.0,  999.0,  999.0,  999.0,  999.0,  999.0
2008/10/29 07:30,  999.0,  999.0,  999.0,  999.0,  999.0,  999.0,  999.0,  999.0,  999.0,  999.0,  999.0,  999.0,  999.0,  999.0,  999.0,  999.0,  999.0,  999.0,  999.0,  999.0,  999.0,  999.0,  999.0,  999.0,  999.0,  999.0,  999.0,  999.0,  999.0,  999.0,  999.0,  999.0,  999.0,  999.0,  999.0,  999.0,  999.0,  999.0,  999.0,  999.0,  999.0,  999.0,  999.0,  999.0,  999.0,  999.0,  999.0,  999.0,  999.0,  999.0,  999.0,  999.0,  999.0,  999.0,  999.0,  999.0,  999.0,  999.0,  999.0,  999.0,  999.0,  999.0,  999.0,  999.0,  999.0,  999.0,  999.0,  999.0,  999.0,  999.0,  999.0,  999.0,  999.0,  999.0,  999.0,  999.0,  999.0,  999.0,  999.0,  999.0,  999.0,  999.0,  999.0,  999.0,  999.0,  999.0,  999.0,  999.0,  999.0,  999.0,  999.0,  999.0,  999.0,  999.0,  999.0,  999.0,  999.0,  999.0
2008/10/29 07:40,    1.4,    2.6,    2.6,    3.6,    2.8,    1.6,    1.4,    0.3,   -0.8,   -3.8,   -4.4,   -3.5,   -2.8,   -2.5,   -2.7,   -3.1,  999.0,   -1.4,   -1.7,   -1.7,   -1.8,   -2.6,   -3.1,   -3.9,   -5.8,   -7.4,  999.0,  999.0,  999.0,  999.0,  999.0,   -9.8,  999.0,  999.0,  999.0,  999.0,  999.0,  999.0,  999.0,  999.0,  999.0,  999.0,  999.0,  999.0,  999.0,  999.0,  999.0,  999.0,  999.0,  999.0,  999.0,  999.0,  999.0,  999.0,  999.0,  999.0,  999.0,  999.0,  999.0,  999.0,  999.0,  999.0,  999.0,  999.0,  999.0,  999.0,  999.0,  999.0,  999.0,  999.0,  999.0,  999.0,  999.0,  999.0,  999.0,  999.0,  999.0,  999.0,  999.0,  999.0,  999.0,  999.0,  999.0,  999.0,  999.0,  999.0,  999.0,  999.0,  999.0,  999.0,  999.0,  999.0,  999.0,  999.0,  999.0,  999.0,  999.0,  999.0
2008/10/29 07:50,    2.1,    3.9,    2.6,    3.3,    2.6,    1.6,    0.4,   -1.0,   -2.2,   -3.9,   -3.6,  999.0,   -2.0,   -2.2,   -2.4,  999.0,   -2.5,  999.0,   -2.1,   -1.9,   -1.9,   -2.2,   -3.2,   -4.3,   -5.8,   -7.4,   -8.1,   -9.1,  999.0,  999.0,  999.0,  999.0,  999.0,  999.0,  999.0,  999.0,  999.0,  999.0,  999.0,  999.0,  999.0,  999.0,  999.0,  999.0,  999.0,  999.0,  999.0,  999.0,  999.0,  999.0,  999.0,  999.0,  999.0,  999.0,  999.0,  999.0,  999.0,  999.0,  999.0,  999.0,  999.0,  999.0,  999.0,  999.0,  999.0,  999.0,  999.0,  999.0,  999.0,  999.0,  999.0,  999.0,  999.0,  999.0,  999.0,  999.0,  999.0,  999.0,  999.0,  999.0,  999.0,  999.0,  999.0,  999.0,  999.0,  -11.1,  999.0,  999.0,  999.0,  999.0,  999.0,  999.0,  999.0,  999.0,  999.0,  999.0,  999.0,  999.0
2008/10/29 08:00,    0.3,    1.9,    1.2,    1.5,    2.3,    1.0,    0.0,   -1.0,   -3.0,   -4.5,   -3.9,   -3.1,   -2.6,   -2.5,   -2.5,   -3.2,   -2.9,   -3.0,   -2.3,   -1.6,   -2.1,   -2.7,   -3.9,   -5.6,   -7.2,  999.0,  999.0,   -8.5,  999.0,  999.0,  999.0,  999.0,  -10.9,  999.0,  999.0,  999.0,  999.0,  999.0,  999.0,  999.0,  999.0,  999.0,  999.0,  999.0,  999.0,  999.0,  999.0,  999.0,  999.0,  999.0,  999.0,  999.0,  999.0,  999.0,  999.0,  999.0,  999.0,  999.0,  999.0,  999.0,  999.0,  999.0,  999.0,  999.0,  999.0,  999.0,  999.0,  999.0,  999.0,  999.0,  999.0,  999.0,  999.0,  999.0,  999.0,  999.0,  999.0,  999.0,  999.0,  999.0,  999.0,  999.0,  999.0,  999.0,  999.0,  999.0,  999.0,  999.0,  999.0,  999.0,  999.0,  999.0,  999.0,  999.0,  999.0,  999.0,  999.0,  999.0
2008/10/29 08:10,    0.5,    0.9,    0.1,    0.4,    2.4,    0.7,    0.0,   -0.5,   -2.6,   -3.5,   -2.7,   -2.7,   -1.9,   -2.1,   -2.2,   -3.0,   -3.1,   -2.5,   -2.1,   -2.0,   -2.3,   -3.4,   -5.4,   -7.2,  999.0,  999.0,  999.0,  999.0,  999.0,  999.0,  999.0,  999.0,  999.0,  999.0,  999.0,  999.0,  999.0,  999.0,  999.0,  999.0,  999.0,  999.0,  999.0,  999.0,  999.0,  999.0,  999.0,  999.0,  999.0,  999.0,  999.0,  999.0,  999.0,  999.0,  999.0,  999.0,  999.0,  999.0,  999.0,  999.0,  999.0,  999.0,  999.0,  999.0,  999.0,  999.0,  999.0,  999.0,  999.0,  999.0,  999.0,  999.0,  999.0,  999.0,  999.0,  999.0,  999.0,  999.0,  999.0,  999.0,  999.0,  999.0,  999.0,  999.0,  999.0,  999.0,  999.0,  999.0,  999.0,  999.0,  999.0,  999.0,  999.0,  999.0,  999.0,  999.0,  999.0,  999.0
2008/10/29 08:20,    0.7,    0.8,    0.6,    0.4,    1.8,    0.7,    0.0,   -1.3,  999.0,   -4.4,   -3.2,   -2.6,  999.0,  999.0,   -2.8,   -2.7,   -2.8,   -2.5,   -1.8,   -2.0,   -2.8,   -4.3,   -5.8,   -7.5,   -8.4,  999.0,  999.0,  999.0,  999.0,  999.0,  999.0,  999.0,  999.0,  999.0,  999.0,  999.0,  999.0,  999.0,  999.0,  999.0,  999.0,  999.0,  999.0,  999.0,  999.0,  999.0,  999.0,  999.0,  999.0,  999.0,  999.0,  999.0,  999.0,  999.0,  999.0,  999.0,  999.0,  999.0,  999.0,  999.0,  999.0,  999.0,  999.0,  999.0,  999.0,  999.0,  999.0,  999.0,  999.0,  999.0,  999.0,  999.0,  999.0,  999.0,  999.0,  999.0,  999.0,  999.0,  999.0,  999.0,  999.0,  999.0,  999.0,  999.0,  999.0,  999.0,  999.0,  999.0,  999.0,  999.0,  999.0,  999.0,  999.0,  999.0,  999.0,  999.0,  999.0,  999.0
2008/10/29 08:30,    0.7,    1.3,    0.3,   -0.3,    1.3,   -1.0,   -0.7,   -1.6,   -4.3,   -3.9,   -3.3,   -2.6,   -2.7,   -3.4,   -3.9,   -3.5,   -3.0,   -2.4,  999.0,   -1.0,   -3.9,   -5.5,   -6.3,   -8.1,   -8.7,   -9.1,   -8.5,  999.0,   -9.9,   -9.8,  999.0,  -10.6,  999.0,  -10.0,  -10.7,  -10.8,  -10.2,  -10.8,  -10.0,   -9.9,   -9.0,   -9.0,   -9.6,  -10.4,   -9.9,  999.0,  999.0,  -12.1,  999.0,  999.0,  999.0,  999.0,  999.0,  999.0,  999.0,  999.0,  999.0,  999.0,  999.0,  999.0,  999.0,  999.0,  999.0,  999.0,  999.0,  999.0,  999.0,  999.0,  999.0,  999.0,  999.0,  999.0,  999.0,  999.0,  999.0,  999.0,  999.0,  999.0,  999.0,  999.0,  999.0,  999.0,  999.0,  999.0,  999.0,  999.0,  999.0,  999.0,  999.0,  999.0,  999.0,  999.0,  999.0,  999.0,  999.0,  999.0,  999.0,  999.0
2008/10/29 08:40,    1.7,    3.0,    5.0,  999.0,    2.3,    1.1,    0.4,   -2.8,   -4.0,   -3.5,   -2.7,   -2.7,   -3.2,   -3.8,   -4.5,   -4.0,   -3.2,   -2.2,   -2.1,   -2.9,   -4.5,   -5.3,   -7.1,   -8.6,   -8.6,   -8.5,   -9.1,  -10.2,  -10.9,  -11.2,  -10.5,  -10.0,   -9.3,  999.0,  999.0,  999.0,  999.0,  999.0,  999.0,  999.0,  -10.1,  999.0,  999.0,  999.0,   -8.9,   -9.4,  -10.8,  -11.1,  999.0,  999.0,  999.0,  999.0,  999.0,  999.0,  999.0,  999.0,  999.0,  999.0,  999.0,  999.0,  999.0,  999.0,  999.0,  999.0,  999.0,  999.0,  999.0,  999.0,  999.0,  999.0,  999.0,  999.0,  999.0,  999.0,  999.0,  999.0,  999.0,  999.0,  999.0,  999.0,  999.0,  999.0,  999.0,  999.0,  999.0,  999.0,  999.0,  999.0,  999.0,  999.0,  999.0,  999.0,  999.0,  999.0,  999.0,  999.0,  999.0,  999.0
2008/10/29 08:50,    1.7,    1.8,    2.7,  999.0,    2.6,    1.3,   -0.2,   -3.2,   -4.4,   -4.7,   -4.5,   -3.9,   -4.0,   -4.6,   -5.1,   -5.3,   -5.2,   -3.7,   -3.6,   -3.7,   -4.5,   -5.4,   -6.1,   -6.1,   -8.7,   -8.4,   -9.0,  -10.6,  -12.0,  -11.5,  -11.5,  -11.9,  -11.7,  -11.9,  -12.3,  -12.2,  -11.4,  -11.7,  -10.6,   -9.4,   -9.4,  -10.5,  -11.0,  -10.5,   -9.2,  -10.4,  -10.7,  -10.8,  -10.3,   -9.3,   -9.0,   -8.6,   -8.6,   -8.4,   -7.8,   -7.0,   -6.7,   -6.2,   -6.2,   -6.1,   -6.1,   -5.5,   -5.3,   -5.9,   -6.3,   -7.2,   -7.7,   -7.6,   -7.2,   -7.3,   -7.8,   -8.8,   -9.8,  -10.6,  -11.1,  999.0,  999.0,  999.0,  999.0,  999.0,  999.0,  999.0,  999.0,  999.0,  999.0,  999.0,  999.0,  999.0,  999.0,  999.0,  999.0,  999.0,  999.0,  999.0,  999.0,  999.0,  999.0,  999.0
2008/10/29 09:00,    1.8,    2.3,    3.1,    2.6,    2.4,    1.6,    0.3,   -1.8,   -3.6,   -4.3,   -4.5,   -4.7,   -4.6,   -5.2,   -5.8,   -5.4,   -4.5,   -4.4,   -4.3,   -5.8,   -5.9,   -6.5,   -6.8,   -7.6,   -8.2,   -9.5,  -10.3,  -10.9,  -10.3,   -9.6,  -10.8,  -11.4,  999.0,  999.0,  999.0,  999.0,  999.0,  999.0,  999.0,  999.0,  999.0,  999.0,  -11.4,  999.0,  999.0,   -9.1,   -9.5,  999.0,   -9.7,   -8.9,   -8.3,   -8.2,   -7.8,   -8.0,   -8.0,   -7.0,   -6.2,   -6.0,   -5.9,   -5.7,   -5.2,   -4.5,   -4.4,   -5.0,   -5.8,   -6.4,   -7.2,   -7.5,   -7.3,   -7.1,   -7.6,   -8.6,   -9.4,   -9.9,  -10.9,  -11.5,  999.0,  999.0,  999.0,  999.0,  999.0,  999.0,  999.0,  999.0,  999.0,  999.0,  999.0,  999.0,  999.0,  999.0,  999.0,  999.0,  999.0,  999.0,  999.0,  999.0,  999.0,  999.0
2008/10/29 09:10,    2.3,    2.9,    3.0,    3.8,    3.6,    2.5,    0.9,   -1.0,   -3.2,   -3.6,   -3.6,   -3.8,   -3.9,   -3.7,   -4.1,   -4.6,   -3.3,   -2.6,   -3.2,   -3.8,   -4.9,   -5.5,   -5.9,   -7.2,   -8.7,   -9.3,   -9.9,   -9.8,   -9.4,  -10.4,  -10.9,  -10.7,  -11.7,  -11.7,  -11.3,  -12.1,  -12.1,  999.0,  -12.6,  -11.9,  -11.1,  -10.5,  999.0,   -8.4,  999.0,  999.0,  999.0,  999.0,   -9.9,   -8.7,   -7.9,   -7.3,   -7.1,   -7.6,   -8.0,   -7.2,   -5.9,   -6.0,   -6.3,   -6.3,   -5.9,   -5.0,   -4.0,   -4.2,   -4.9,   -5.7,   -6.4,   -7.1,   -7.2,   -6.8,   -7.4,   -8.5,   -9.5,  -10.4,  -11.0,  -11.6,  -11.3,  -11.7,  -11.1,  -10.1,   -9.5,   -8.9,  999.0,   -8.5,   -8.5,   -8.9,  999.0,  999.0,  999.0,  999.0,  999.0,  999.0,   -8.4,   -8.6,  999.0,  999.0,  999.0,  999.0
2008/10/29 09:20,    3.1,    3.7,    4.4,    4.4,    3.7,    2.8,    1.3,   -0.3,   -2.0,   -3.2,   -2.8,   -3.2,   -4.0,   -4.6,   -4.8,   -4.6,   -4.5,   -5.1,   -5.6,   -6.5,   -6.7,   -7.1,   -8.2,   -9.1,  -10.5,  -10.0,  -10.1,  -10.3,  -11.4,  -11.6,  -12.2,  -12.4,  -12.9,  -13.6,  -13.8,  -14.0,  -14.9,  -14.5,  -14.8,  -13.4,  -11.9,  -10.1,   -9.8,  999.0,   -9.9,  999.0,  999.0,  999.0,   -9.7,   -8.9,   -7.5,   -6.8,   -6.9,   -7.4,   -7.6,   -7.2,   -6.4,   -6.0,   -5.9,   -5.9,   -5.9,   -5.0,   -3.8,   -3.9,   -4.8,   -5.7,   -6.2,   -6.9,   -7.4,   -7.5,   -8.0,   -9.0,   -9.9,  -10.4,  -11.0,  -11.4,  -11.6,  -12.1,  -12.4,  -11.8,  -10.8,  999.0,  999.0,  999.0,   -9.1,   -9.5,  -10.2,  -10.5,  -11.1,  -10.7,  -10.6,  -10.1,   -9.6,   -9.4,   -9.6,   -9.7,  999.0,  999.0
2008/10/29 09:30,    3.9,    4.2,    4.4,    4.0,    3.1,    2.3,    0.7,   -0.6,  999.0,  999.0,  999.0,   -2.4,   -2.8,   -4.3,   -3.8,   -3.9,   -4.3,   -5.6,   -6.1,   -6.1,   -6.4,   -7.3,   -7.9,   -8.7,   -9.5,   -9.2,   -9.8,  -10.9,  -10.6,  -11.3,  -11.5,  -11.9,  -12.7,  -14.0,  -14.2,  -14.9,  -14.3,  -14.3,  -14.0,  -12.9,  -11.1,  -10.3,  -10.3,  -10.1,   -9.4,   -9.1,   -9.5,  -10.1,   -9.5,   -8.8,   -8.0,   -7.5,   -7.8,   -8.3,   -8.6,   -8.4,   -7.2,   -5.9,   -5.4,   -5.3,   -5.3,   -5.1,   -4.5,   -4.4,   -5.0,   -5.6,   -6.0,   -6.5,   -6.7,   -7.2,   -7.9,   -8.9,   -9.7,  -10.1,  -10.4,  -10.3,  -10.3,  -10.6,  -10.7,  -11.0,  -10.9,  -10.9,  -10.7,  -10.4,  -10.2,  -10.1,  -10.1,  -10.5,  -10.8,  -11.1,  -11.5,  -11.7,  -11.1,  999.0,  -10.8,  999.0,   -9.0,  999.0
2008/10/29 09:40,    2.5,    3.6,    3.4,    2.7,    2.2,    1.2,    0.1,   -0.6,   -1.5,   -2.6,   -2.7,   -3.2,   -4.0,   -4.3,   -4.3,   -4.5,   -4.8,   -5.4,   -5.6,   -6.1,   -6.7,   -7.5,   -7.6,   -7.9,   -8.3,   -8.7,   -9.5,  -10.7,  -11.0,  -11.2,  -11.3,  -12.1,  -12.4,  -12.5,  -13.2,  -13.8,  -13.6,  -13.8,  -13.3,  -13.0,  -12.0,  -11.6,  -10.0,  -10.6,  999.0,   -8.9,   -9.8,   -9.1,   -8.4,   -8.1,   -7.6,   -7.3,   -7.8,   -8.3,   -8.2,   -7.7,   -6.3,   -4.7,   -4.6,   -4.7,   -4.8,   -4.6,   -4.4,   -4.6,   -4.9,   -5.2,   -5.4,   -5.7,   -6.2,   -6.5,   -7.1,   -8.0,   -9.1,   -9.6,   -9.9,  -10.1,  -10.7,  -11.2,  -11.4,  -10.9,  -10.0,   -9.7,   -9.5,   -9.5,   -9.8,   -9.3,   -9.8,   -9.9,  -10.6,  -11.0,  -11.4,  -11.6,  999.0,  999.0,  999.0,  999.0,  999.0,  999.0
2008/10/29 09:50,    2.6,    3.5,    3.0,    2.2,    2.0,    0.8,   -0.2,   -1.1,   -2.2,   -2.7,   -3.3,   -3.9,   -4.5,   -4.7,   -4.9,   -5.6,   -6.2,   -6.4,   -7.4,   -8.1,   -8.8,   -9.1,   -9.3,   -9.2,   -9.3,  -10.1,  -10.6,  -11.7,  -11.8,  -11.6,  -11.8,  -12.8,  -12.6,  -12.5,  -12.9,  -13.4,  -13.4,  -13.2,  -13.5,  -13.6,  -13.7,  -13.5,  -12.4,  -11.1,  -10.9,  999.0,  -10.3,   -9.6,   -8.7,   -8.5,   -8.1,   -7.6,   -7.7,   -7.9,   -7.7,   -6.9,   -4.8,   -4.3,   -4.0,   -4.3,   -4.5,   -4.7,   -4.8,   -5.0,   -5.0,   -4.8,   -4.6,   -4.7,   -4.8,   -5.1,   -5.6,   -6.6,   -7.5,   -8.4,   -9.2,   -9.6,  -10.0,   -9.7,   -9.4,   -9.1,   -9.5,   -9.4,   -9.3,   -9.2,   -9.4,  999.0,  999.0,  999.0,  999.0,  999.0,  999.0,  999.0,  999.0,  999.0,  999.0,  999.0,  999.0,  999.0
2008/10/29 10:00,    1.4,    3.0,    3.4,    2.6,    2.0,    1.1,    0.2,   -0.7,   -2.0,   -2.5,   -2.9,   -3.5,   -3.9,   -3.3,   -4.0,   -4.6,   -4.9,   -5.7,   -7.0,   -7.1,   -7.8,   -8.0,   -7.4,   -7.6,   -8.1,   -8.9,   -9.8,  -10.3,  -10.8,  -10.5,  -10.8,  -11.6,  -10.5,  -10.8,  -11.5,  -11.1,  -10.5,  -11.1,  -10.9,  -11.0,  -11.4,  -10.6,  -11.6,  999.0,  999.0,  -11.9,  -11.2,   -9.2,   -8.5,   -8.1,   -7.7,   -7.2,   -6.9,   -7.2,   -7.2,   -6.2,   -5.1,   -4.4,   -3.9,   -3.9,   -4.1,   -4.1,   -4.4,   -4.7,   -4.9,   -5.0,   -4.9,   -4.7,   -4.4,   -4.3,   -4.5,   -5.0,   -6.1,   -7.2,   -7.9,   -8.3,   -8.6,   -7.9,   -7.0,   -7.2,   -6.9,   -7.0,   -7.0,  999.0,  999.0,  999.0,  999.0,  999.0,  999.0,  999.0,  999.0,  999.0,  999.0,  999.0,  999.0,  999.0,  999.0,  999.0
2008/10/29 10:10,    1.7,    3.3,    3.5,    2.9,    2.1,    0.9,    0.5,   -0.6,   -1.7,   -2.5,   -3.1,   -3.4,   -3.8,   -3.5,   -3.9,   -4.4,   -5.0,   -6.0,   -7.1,   -7.1,   -6.9,   -7.3,   -7.6,   -8.0,   -8.5,   -8.8,   -9.4,   -9.4,   -9.5,   -9.5,  -10.1,  -10.3,  -10.3,   -9.7,   -9.5,   -8.7,   -9.2,   -9.2,   -8.9,   -9.2,   -9.7,  -10.3,  -10.1,  999.0,  999.0,  999.0,  -12.5,  -11.1,  -10.2,   -9.1,   -7.9,   -6.7,   -6.8,   -7.1,   -7.0,   -6.6,   -6.2,   -5.6,   -4.6,   -4.1,   -4.1,   -4.0,   -4.0,   -4.2,   -4.5,   -4.4,   -4.5,   -4.6,   -4.4,   -3.9,   -3.8,   -4.0,   -4.6,   -5.8,   -6.9,   -7.2,   -7.4,   -7.2,   -6.8,   -6.4,   -6.6,   -6.5,  999.0,  999.0,   -6.1,  999.0,  999.0,  999.0,  999.0,  999.0,  999.0,  999.0,  999.0,  999.0,  999.0,  999.0,  999.0,  999.0
2008/10/29 10:20,    2.7,    2.9,    3.0,    2.7,    1.9,    0.9,   -0.1,   -0.6,   -1.4,   -2.6,   -3.1,   -3.4,   -3.7,   -4.0,   -4.1,   -4.6,   -5.4,   -6.6,   -7.0,   -7.2,   -7.3,   -7.6,   -8.0,   -8.3,   -8.5,   -8.7,   -9.5,   -9.6,   -9.7,   -9.7,   -9.8,  -10.3,  -10.1,   -9.7,   -9.4,   -9.0,   -9.1,   -8.9,   -8.9,   -9.6,   -9.8,  -10.4,  -10.6,  -10.8,  999.0,  999.0,  -12.8,  -12.1,  -10.8,   -9.8,   -8.4,   -6.8,   -7.0,   -6.7,   -6.6,   -6.7,   -6.4,   -5.7,   -5.1,   -5.0,   -4.6,   -4.6,   -4.7,   -5.1,   -5.2,   -4.8,   -4.5,   -4.5,   -4.4,   -4.1,   -4.1,   -4.1,   -4.4,   -5.1,   -5.9,   -6.5,   -6.6,   -6.4,   -6.2,   -6.3,   -6.3,   -6.1,   -5.7,   -5.5,   -5.2,   -5.2,   -5.1,   -5.3,   -5.6,   -5.7,   -5.8,   -5.9,   -5.9,   -6.0,  999.0,  999.0,  999.0,  999.0
2008/10/29 10:30,  999.0,    3.5,    3.2,    2.6,    2.3,    0.9,   -0.3,   -1.1,   -1.8,   -3.3,   -3.4,   -4.3,   -4.7,   -4.9,   -4.3,   -5.4,   -6.8,   -7.3,   -7.4,   -8.1,   -8.4,   -7.9,   -8.6,   -9.3,   -9.9,  -10.2,  -10.1,  -10.6,  -11.1,  -11.7,  -12.0,  -11.7,  -11.3,  -11.6,  -11.9,  -12.4,  -12.5,  -12.3,  -12.7,  -12.4,  -12.2,  -12.8,  -12.1,  -11.5,  -12.3,  999.0,  999.0,  -14.1,  -11.7,  -10.3,   -9.8,   -9.5,   -9.3,   -8.8,   -8.9,   -8.2,   -7.7,   -7.1,   -6.6,   -6.1,   -5.5,   -5.4,   -5.6,   -5.7,   -5.7,   -5.3,   -4.9,   -5.1,   -4.9,   -4.5,   -4.6,   -4.7,   -4.7,   -4.8,   -5.2,   -5.6,   -5.9,   -5.9,   -6.0,   -6.1,   -6.2,   -6.4,   -5.8,   -5.8,   -5.5,   -5.5,   -5.4,   -5.1,   -4.7,   -4.9,   -5.1,   -5.2,   -5.5,   -5.9,   -5.8,   -6.0,   -6.3,   -6.6
2008/10/29 10:40,    3.5,    4.1,    4.1,    3.6,    3.5,    2.1,    1.1,    0.2,   -1.3,   -1.9,   -2.6,   -2.7,   -2.6,   -2.6,   -2.7,   -4.5,   -4.9,   -4.7,   -5.0,   -5.4,   -5.6,   -5.6,   -6.2,   -6.9,   -7.0,   -7.3,   -7.9,   -7.7,   -8.1,   -9.0,   -7.9,   -8.0,   -8.5,   -8.6,   -8.8,   -8.9,  -10.3,   -9.6,   -9.7,  -10.0,   -9.1,   -9.1,   -8.6,   -9.8,  999.0,  999.0,  999.0,  -13.8,  -11.9,  -10.1,   -9.0,   -8.8,   -9.1,   -9.0,   -9.1,   -9.1,   -8.8,   -8.3,   -8.4,   -8.7,   -8.3,   -8.0,   -7.3,   -7.1,   -7.0,   -7.1,   -7.1,   -7.0,   -6.8,   -6.3,   -5.7,   -5.8,   -5.9,   -5.7,   -5.5,   -5.5,   -5.7,   -5.8,   -5.8,   -5.7,   -5.6,   -5.7,   -6.0,   -6.0,   -6.0,   -5.8,   -5.7,   -5.8,   -5.3,   -5.2,   -5.4,   -5.6,   -5.7,   -5.9,   -6.2,   -6.4,   -6.2,   -6.5
2008/10/29 10:50,  999.0,    3.5,    4.7,    3.5,    3.0,    2.5,    1.6,    0.4,   -1.3,   -2.4,   -3.3,   -3.3,   -3.1,   -3.0,   -4.0,   -5.6,   -5.9,   -5.2,   -5.0,   -5.5,   -6.3,   -6.4,   -7.0,   -8.0,   -8.3,   -8.2,   -8.3,   -8.6,   -9.3,   -9.4,   -9.8,  -10.5,  -11.1,  -11.2,  -11.9,  -11.9,  -11.8,  -12.2,  -12.6,  -12.5,  -12.1,  -11.8,  -11.6,  -11.3,  -10.2,  999.0,  999.0,  999.0,  -13.0,  -11.2,   -9.9,   -9.4,   -8.9,   -8.6,   -8.6,   -9.1,   -9.4,   -9.3,   -9.4,   -9.7,   -9.9,  -10.0,   -9.5,   -9.4,   -9.2,   -8.9,   -8.6,   -8.5,   -8.5,   -8.0,   -7.7,   -7.6,   -7.7,   -7.8,   -7.6,   -7.1,   -6.5,   -5.9,   -5.7,   -5.8,   -5.7,   -5.6,   -5.9,   -6.4,   -6.7,   -6.4,   -6.2,   -6.2,   -5.9,   -6.1,   -6.1,   -6.6,  999.0,  999.0,  999.0,  999.0,  999.0,  999.0
2008/10/29 11:00,    4.1,    4.6,    4.4,    4.4,    2.9,    1.9,    1.5,   -1.5,   -1.8,   -2.8,   -3.3,   -3.7,   -4.1,   -5.1,   -6.4,   -7.5,   -6.8,   -6.1,   -5.6,   -6.1,   -6.4,   -6.3,   -6.6,   -7.4,   -8.3,   -7.9,   -8.3,   -8.5,   -9.1,   -9.3,   -9.6,  -10.5,  -11.4,  -12.1,  -13.0,  -12.7,  -12.3,  -11.3,  -10.8,  -11.7,  -11.2,  -12.0,  -10.9,  -10.1,  999.0,  999.0,  999.0,  999.0,  999.0,  -11.9,  -10.3,  -10.1,  -10.1,   -9.4,   -9.1,   -9.3,   -9.6,  -10.1,  -10.5,  -10.5,  -10.4,  -10.3,  -10.2,  -10.2,  -10.1,   -9.3,   -9.1,   -9.1,   -9.3,   -9.4,   -9.6,   -9.5,   -8.7,   -8.4,   -8.4,   -8.2,   -7.7,   -6.8,   -6.2,   -5.7,   -5.7,   -5.5,   -5.7,   -6.3,   -6.8,   -7.3,   -6.9,   -6.2,  999.0,   -6.3,  999.0,  999.0,  999.0,  999.0,  999.0,  999.0,  999.0,  999.0
2008/10/29 11:10,    6.0,    4.6,    6.0,    2.6,    2.9,    2.1,    0.4,    0.5,    0.4,    0.3,   -0.4,   -0.8,   -2.1,   -4.1,   -4.8,   -5.5,   -5.7,   -5.2,   -5.5,   -5.6,   -5.7,   -5.8,   -6.3,  999.0,  999.0,  999.0,  999.0,  999.0,   -9.9,  -10.7,  -10.8,  -10.7,  999.0,  -12.1,  -11.7,  -12.5,   -8.6,   -9.8,   -9.9,  -10.5,  -10.4,  -11.0,  999.0,  999.0,  999.0,  999.0,  999.0,  999.0,  -10.5,  -10.2,  -10.8,  -11.0,  -10.7,  -10.4,  -10.3,  -10.4,  -10.6,  -10.6,  -10.7,  -10.8,  -10.9,  -11.1,  -11.1,  -11.0,  -10.6,  -10.0,   -9.5,   -9.0,   -8.7,   -8.9,   -9.7,  -10.0,   -9.9,   -9.1,   -7.7,   -7.7,   -6.2,  999.0,  999.0,  999.0,  999.0,   -5.5,  999.0,  999.0,  999.0,  999.0,  999.0,  999.0,  999.0,  999.0,  999.0,  999.0,  999.0,  999.0,  999.0,  999.0,  999.0,  999.0
2008/10/29 11:20,    5.9,    5.8,    6.3,    4.7,    2.8,    2.5,    2.9,    2.6,    1.2,   -0.5,   -1.1,   -1.5,   -2.5,   -3.5,   -3.8,   -4.1,   -4.1,   -4.2,   -4.0,   -4.2,   -4.1,   -5.5,   -6.0,   -6.1,   -6.7,   -6.6,   -7.8,   -8.6,   -9.3,   -9.5,   -9.4,   -9.9,  -10.0,   -9.6,   -9.1,   -7.7,   -6.8,   -6.4,   -5.6,   -6.9,   -5.4,   -6.7,   -7.3,   -5.5,   -8.9,  999.0,  -11.0,  -11.5,  -11.6,  -12.7,  -12.7,  -12.3,  -12.3,  -12.3,  -12.1,  -11.4,  -10.7,   -9.8,   -9.5,   -9.4,   -9.6,  -10.0,  -10.2,  -10.4,  -10.1,   -9.9,   -9.9,   -9.7,   -9.9,  -10.5,  -11.0,  999.0,  999.0,  999.0,  999.0,  999.0,  999.0,  999.0,  999.0,  999.0,  999.0,  999.0,  999.0,  999.0,  999.0,  999.0,  999.0,  999.0,  999.0,  999.0,  999.0,  999.0,  999.0,  999.0,  999.0,  999.0,  999.0,  999.0
2008/10/29 11:30,    3.2,    3.6,    5.7,    4.3,  999.0,    3.7,    3.2,    3.1,    2.2,    2.4,   -1.9,   -2.9,   -3.7,   -4.5,   -4.6,   -4.7,   -5.1,   -5.3,   -5.0,   -4.7,   -4.8,   -5.3,   -5.3,   -5.4,   -8.6,   -9.7,  -10.1,  -10.7,  -10.8,  -10.3,  -11.0,  -10.8,  -10.4,   -9.9,  -10.4,   -8.5,   -8.3,   -8.5,   -7.8,   -8.4,   -9.9,   -8.4,   -7.7,   -7.3,   -8.6,   -9.4,  -10.3,  -11.1,  -10.8,  999.0,  -11.5,  -12.2,  -12.4,  -12.7,  -12.3,  -13.1,  999.0,  999.0,  999.0,  -10.4,  -10.9,  -10.7,  -10.8,  -10.3,  -10.4,  -10.7,  -10.7,  -10.6,  -10.3,  -11.1,  999.0,  999.0,  999.0,  999.0,  999.0,  999.0,  999.0,   -6.0,   -5.3,   -5.4,   -5.8,   -6.0,   -6.6,   -7.0,   -6.6,   -6.2,   -5.6,   -5.7,   -6.0,   -6.0,   -5.9,   -6.0,   -5.8,   -5.9,   -5.9,   -6.1,   -6.3,   -6.4
2008/10/29 11:40,    6.3,    6.9,    6.6,    5.3,    4.9,    4.0,    0.4,    2.1,   -1.1,   -1.0,   -2.2,   -2.3,   -2.4,   -3.3,   -3.9,   -6.7,   -7.1,   -5.3,   -4.7,   -5.7,   -6.8,   -7.2,   -7.7,   -8.6,   -8.8,  -10.2,  -10.8,  -10.3,  -10.9,    0.2,   -2.1,  999.0,    3.6,    4.4,    8.0,    8.9,    8.6,   15.0,    9.7,    8.4,    8.9,  999.0,  -11.2,   -9.6,  999.0,  999.0,  -10.7,  -10.8,  -10.3,  -11.3,  -11.8,  -11.8,  -11.6,  -11.4,  -11.4,  -11.5,  -11.4,  -11.0,  -10.9,  -10.7,  -10.8,  -10.8,  -10.7,  -10.3,  -10.3,  -10.3,  -10.4,  -10.2,  -10.2,  -10.4,  -10.8,  -10.6,  -10.5,  -10.3,  -10.6,  -10.0,   -9.4,   -7.7,   -6.8,   -6.8,   -6.9,   -7.2,   -7.3,   -7.2,   -6.5,   -6.0,   -5.7,   -5.9,   -5.9,   -6.1,   -6.2,   -6.0,   -6.1,   -6.4,   -6.6,   -6.9,   -6.9,   -7.1
2008/10/29 11:50,    5.6,    6.1,    6.1,    5.5,    5.4,    4.0,    3.0,    2.0,    1.2,   -0.1,   -0.7,   -1.7,   -2.1,   -2.8,   -3.2,   -4.0,   -4.7,   -4.7,   -4.8,   -6.1,   -6.2,   -5.6,   -5.9,   -6.9,   -7.2,  999.0,  999.0,  999.0,  999.0,   24.2,   24.0,   24.2,   23.8,   23.2,   23.1,   23.8,   24.3,   23.4,   24.5,   24.6,   25.2,   23.4,  999.0,  999.0,  999.0,  999.0,  999.0,  -10.8,  -11.1,  -10.5,  -10.4,  -10.2,  -10.3,  -10.4,  -10.4,  -10.6,  -10.6,  -10.4,  -10.4,  -10.4,  -10.5,  -10.5,  -10.3,  -10.0,   -9.9,  -10.1,  -10.4,  -10.3,  -10.4,  -10.3,  -10.4,  -10.7,  -10.5,  -10.1,   -9.7,   -9.2,   -8.8,   -8.3,   -8.1,   -8.1,   -8.2,   -8.1,   -7.7,   -7.2,   -6.8,   -6.4,   -6.3,   -6.5,   -6.9,   -6.9,   -6.7,   -6.7,   -6.8,   -6.9,   -7.0,   -7.3,   -7.5,   -7.8
2008/10/29 12:00,  999.0,    7.3,    7.0,    5.9,    5.0,    4.9,    3.9,    2.2,    1.0,   -0.5,   -1.8,   -2.5,   -3.1,   -3.4,   -3.9,   -4.8,   -4.8,   -5.5,   -6.4,   -6.6,   -6.5,   -5.8,   -5.6,   -6.2,  999.0,   -6.8,  999.0,  999.0,  999.0,   24.3,   24.5,   24.9,   25.2,   25.3,   25.5,   25.5,   25.8,   25.8,   24.9,   24.9,   25.7,   25.3,  999.0,  999.0,  999.0,  999.0,  999.0,  -11.1,  -11.0,  -10.3,   -9.9,   -9.5,   -9.2,   -9.2,   -9.3,   -9.2,  -10.0,  -10.3,  -10.2,  -10.2,  -10.6,  -10.7,  -10.6,  -10.4,  -10.4,  -10.5,  -10.6,  -10.5,  -10.1,  -10.0,  -10.0,  -10.3,  -10.5,  -10.4,   -9.7,   -9.0,   -8.4,   -8.0,   -7.6,   -7.6,   -7.5,   -7.5,   -7.5,   -7.5,   -7.5,   -7.7,   -8.0,   -8.0,   -8.1,   -7.9,   -7.9,   -7.8,   -8.0,   -7.8,   -8.1,   -8.1,   -8.3,   -8.6
2008/10/29 12:10,    6.9,    7.5,    7.4,    6.6,    5.1,    4.4,    3.8,    2.4,    1.4,   -0.3,   -1.5,   -2.4,   -2.5,   -3.1,   -3.8,   -4.7,   -3.8,   -4.7,   -5.2,   -6.9,   -6.1,   -5.4,   -4.6,   -4.4,   -4.8,   -5.3,   -6.0,   -6.5,   -7.0,   -7.2,   -8.0,   -7.3,   -7.5,   -7.1,   -6.1,   -6.1,   -5.6,   -5.8,   -6.2,   -6.6,   -7.2,   -7.3,   -6.8,   -8.6,  999.0,  999.0,  999.0,  -10.2,  -10.0,   -9.2,   -8.7,   -8.8,   -8.8,   -9.0,   -9.1,   -9.3,   -9.3,   -9.1,   -9.1,   -9.3,   -9.2,   -9.3,   -9.6,  -10.1,  -10.3,  -10.7,  -10.8,  -11.0,  -10.9,  -10.5,  -10.4,  -10.5,  -10.4,  -10.3,   -9.6,   -8.9,   -8.4,   -8.3,   -8.2,   -8.3,   -8.3,   -8.1,   -7.8,   -7.6,   -7.9,   -7.7,   -7.6,   -7.6,   -7.5,   -7.7,   -7.8,   -7.9,   -7.8,   -7.6,   -7.7,   -7.8,   -7.9,   -8.2
2008/10/29 12:20,    8.1,    7.3,    5.7,  999.0,    6.6,    5.6,    4.5,    1.8,    1.1,   -0.6,   -1.6,   -2.3,   -3.8,   -5.3,   -5.6,   -5.2,   -4.8,   -5.1,   -5.8,   -7.4,   -7.0,   -7.4,   -7.7,   -6.0,   -7.4,   -6.7,   -7.1,   -7.8,   -7.9,   -7.8,   -9.5,   -9.4,  -10.8,  -10.3,   -9.4,   -8.8,   -7.3,   -8.6,   -9.9,  -10.3,  -11.1,  -10.9,   -9.6,   -8.1,   -6.7,  999.0,  999.0,   -9.8,  -11.1,  -10.1,   -9.4,   -8.9,   -8.4,   -8.2,   -8.6,   -8.9,   -8.9,   -8.8,   -8.8,   -9.0,   -9.1,   -9.2,   -9.2,   -9.4,   -9.5,   -9.8,   -9.7,   -9.5,   -9.5,   -9.6,   -9.7,   -9.8,   -9.5,   -9.3,   -9.0,   -8.4,   -8.1,   -8.1,   -8.1,   -8.3,   -8.6,   -8.8,   -8.9,   -9.0,   -8.9,   -8.9,   -8.7,   -8.6,   -8.6,   -8.5,   -8.5,   -8.6,   -8.6,   -8.8,   -8.6,   -8.5,   -8.6,   -8.5
2008/10/29 12:30,    7.3,    8.3,    8.4,    7.0,    6.4,    5.7,    4.2,    3.5,    2.2,    0.3,   -1.0,   -2.9,   -3.4,   -5.1,   -6.6,   -6.2,   -5.6,   -6.0,   -6.9,   -7.6,   -8.3,   -8.4,   -8.1,   -8.3,   -8.3,   -7.2,   -7.5,   -7.9,   -8.0,   -7.7,   -9.2,   -9.7,  -10.2,  -10.5,  -10.2,  -10.4,  -10.9,  -10.6,  -10.8,   -9.8,   -9.1,   -8.4,   -8.3,   -7.4,  999.0,  999.0,  999.0,  -10.3,  -10.9,  -10.4,  -10.0,   -9.6,   -7.9,   -7.9,   -8.4,   -7.8,   -7.8,   -8.0,   -8.0,   -8.3,   -9.4,   -9.0,  -10.3,   -9.3,   -9.8,   -9.9,   -9.8,   -9.5,   -9.4,   -9.5,  -10.0,   -9.8,  -10.3,  -10.0,   -9.9,   -9.8,   -9.4,   -8.9,   -8.9,   -9.0,  999.0,  999.0,  999.0,  999.0,   -9.1,   -8.9,   -8.8,   -8.8,  999.0,  999.0,  999.0,  999.0,  999.0,  999.0,  999.0,  999.0,  999.0,  999.0
2008/10/29 12:40,    4.6,    5.9,    6.6,    5.7,    5.7,    5.2,    5.4,    3.8,    2.1,    0.4,   -1.1,   -2.4,   -3.2,   -4.6,   -6.7,   -6.9,   -6.5,   -6.1,   -5.7,   -6.7,   -8.0,   -8.8,   -9.2,   -8.9,   -8.1,   -6.4,   -7.3,   -8.4,   -6.7,   -1.4,   -1.6,    0.1,   -3.3,   -3.2,   -4.1,   -3.8,   -3.9,   -5.4,   -5.2,   -4.9,   -3.9,   -4.0,   -4.4,  -13.5,  999.0,  999.0,  999.0,  999.0,  -15.3,  -12.3,  -12.5,  -11.0,  999.0,  999.0,  999.0,  999.0,  999.0,  999.0,  999.0,  999.0,  999.0,  999.0,  999.0,  999.0,  999.0,  999.0,  999.0,  999.0,  999.0,  999.0,  999.0,  999.0,  999.0,  999.0,  999.0,  999.0,  999.0,  999.0,  999.0,  999.0,  999.0,  999.0,  999.0,  999.0,  999.0,  999.0,  999.0,  999.0,  999.0,  999.0,  999.0,  999.0,  999.0,  999.0,  999.0,  999.0,  999.0,  999.0
2008/10/29 12:50,    5.1,    5.7,    5.3,    6.1,    5.8,    4.3,    4.4,    2.8,    1.6,    1.0,    1.5,    0.2,   -0.3,   -4.6,   -6.2,   -6.9,   -4.8,   -6.4,   -6.4,   -8.4,   -6.4,   -7.8,   -6.0,   -8.4,   -4.7,   -6.0,   -5.9,  999.0,   -7.4,   -9.2,   -3.0,  -11.3,   -3.5,   -3.8,   -7.6,   -7.8,  999.0,  999.0,  999.0,  999.0,  999.0,  999.0,  999.0,  -10.3,  999.0,  999.0,  999.0,  999.0,  -12.6,  -12.3,   -9.6,  999.0,  999.0,  999.0,  999.0,  999.0,  999.0,  999.0,  999.0,  999.0,  999.0,  999.0,  999.0,  999.0,  999.0,  999.0,  999.0,  999.0,  999.0,  999.0,  999.0,  999.0,  999.0,  999.0,  999.0,  999.0,  999.0,  999.0,  999.0,  999.0,  999.0,  999.0,  999.0,  999.0,  999.0,  999.0,   -8.8,   -8.9,   -8.9,   -9.1,  999.0,  999.0,  999.0,  999.0,  999.0,  999.0,  999.0,  999.0
2008/10/29 13:00,    6.3,    6.9,    6.7,    6.0,    7.0,    6.3,    5.9,    4.0,    2.4,    1.3,    0.3,   -1.6,   -2.5,   -3.6,   -4.9,   -5.9,   -6.5,   -5.8,   -5.8,   -5.7,   -6.1,   -7.9,   -8.0,   -8.5,   -9.0,   -6.4,   -6.6,   -5.7,   -6.9,   -7.5,   -8.5,   -9.0,   -9.5,   -9.8,  -10.8,  -10.9,  -12.1,  -11.7,  -11.2,  -11.9,  -13.1,  -11.7,  -12.2,  -11.9,  999.0,  999.0,  999.0,  -11.6,  -12.2,  -11.4,  -10.4,  -10.9,  -10.5,  -10.4,  -10.3,  -10.3,  -10.2,  -10.2,   -9.7,   -9.2,   -9.0,   -9.1,   -8.9,   -8.7,   -8.9,   -8.9,   -9.2,   -9.4,  -10.0,  -10.0,   -9.9,  999.0,  999.0,  999.0,  999.0,  999.0,  999.0,   -7.7,   -7.6,   -7.9,   -6.8,   -7.9,   -8.4,   -8.3,   -8.8,  999.0,   -7.7,   -8.2,  999.0,  999.0,  999.0,  999.0,  999.0,  999.0,  999.0,  999.0,  999.0,  999.0
2008/10/29 13:10,    5.2,    6.2,    6.6,    7.0,    7.1,    6.6,    5.8,    4.8,    2.7,    1.3,   -1.0,   -2.8,   -3.1,   -4.0,   -4.8,   -6.1,   -6.0,   -7.2,   -7.7,   -7.7,   -8.0,   -8.5,   -9.0,   -9.8,   -8.9,   -7.8,   -9.0,   -9.3,  -10.0,  -10.2,   -9.1,   -9.5,   -9.5,  -11.4,  -11.1,  -11.8,  -13.1,  -12.0,  -12.0,  -13.3,  -13.1,  -13.5,  -13.1,  -11.9,  -11.8,  999.0,  999.0,  999.0,  -14.1,  -11.5,  -10.4,  -10.5,  -10.3,   -9.7,   -9.7,   -9.8,   -9.9,   -9.7,   -9.2,   -8.6,   -8.1,   -7.7,   -7.8,   -7.9,   -8.1,   -8.3,   -8.5,   -8.9,   -9.2,   -9.4,   -9.3,   -9.3,   -9.0,   -8.7,   -8.5,   -8.4,   -8.5,   -8.0,   -7.7,   -7.1,   -7.1,   -7.2,   -7.5,   -7.9,  999.0,  999.0,  999.0,  999.0,  999.0,  999.0,  999.0,  999.0,  999.0,  999.0,  999.0,  999.0,  999.0,  999.0
2008/10/29 13:20,    6.2,    6.4,    6.7,    6.8,    6.9,    6.7,    5.9,    4.8,    3.6,    2.1,    0.4,   -1.0,   -1.2,   -1.7,   -2.7,   -4.1,   -5.3,   -6.2,   -6.3,   -7.0,   -7.4,   -7.7,   -7.5,   -7.8,   -6.8,   -6.3,   -7.3,   -7.9,   -7.8,   -8.0,   -8.9,   -8.5,   -7.6,   -7.9,   -8.1,   -8.5,   -7.7,   -7.3,   -8.6,   -8.7,  -10.2,  999.0,  999.0,  999.0,  999.0,  999.0,  999.0,  999.0,  -12.4,  -11.3,  -10.4,  -10.0,   -9.9,   -9.9,   -9.9,   -9.7,   -9.8,   -9.9,   -9.8,   -9.3,   -8.7,   -8.2,   -8.5,   -8.8,   -9.1,   -9.1,   -9.1,   -9.0,   -9.4,   -9.5,   -9.4,   -9.2,   -9.6,   -9.4,   -9.0,   -8.5,   -8.7,   -8.0,   -7.9,   -7.7,   -7.4,   -7.1,   -7.0,   -7.2,  999.0,  999.0,  999.0,  999.0,  999.0,  999.0,  999.0,  999.0,  999.0,  999.0,  999.0,  999.0,  999.0,  999.0
2008/10/29 13:30,    5.8,    5.9,    6.5,    6.2,    6.7,    7.4,    7.3,    2.9,    3.1,    1.5,   -0.3,   -0.5,   -1.5,   -1.0,  999.0,  999.0,  999.0,   -6.7,   -5.5,  999.0,  999.0,   -7.6,   -8.7,  999.0,  999.0,   -6.6,   -7.4,  999.0,  999.0,  999.0,  999.0,  999.0,  999.0,  999.0,  999.0,  999.0,  999.0,  999.0,  999.0,  999.0,  999.0,  999.0,  999.0,  999.0,  -11.7,  -11.9,  -11.7,  999.0,  999.0,  999.0,  -11.0,  -11.2,  -10.9,  -10.1,   -9.7,   -9.6,  -10.1,   -9.9,   -9.3,   -8.9,   -9.0,   -9.4,   -9.8,  -10.1,  -10.3,  -10.6,  -11.3,  -12.0,  -12.0,  -11.7,  -11.4,  -11.3,  999.0,  999.0,  999.0,  999.0,  999.0,  999.0,  999.0,  999.0,  999.0,  999.0,  999.0,  999.0,  999.0,  999.0,  999.0,  999.0,  999.0,  999.0,  999.0,  999.0,  999.0,  999.0,  999.0,  999.0,  999.0,  999.0
2008/10/29 13:40,   -0.1,    0.2,    0.1,    1.1,    1.3,    0.1,    0.0,    0.1,    0.5,    1.1,    0.4,   -0.8,   -1.0,  999.0,   -2.5,   -4.8,   -5.9,   -5.8,   -6.4,   -7.4,  999.0,   -8.9,   -9.3,  999.0,  999.0,   -6.6,   -7.3,  999.0,   -7.5,   -8.0,  999.0,  999.0,  999.0,  999.0,  999.0,  999.0,  999.0,  999.0,  999.0,  999.0,  999.0,  999.0,  999.0,  999.0,  -12.6,  999.0,  999.0,  -12.7,  999.0,  999.0,  999.0,  999.0,  999.0,  999.0,  999.0,  999.0,  999.0,  999.0,  999.0,  999.0,  999.0,  999.0,  999.0,  999.0,  999.0,  999.0,  999.0,  999.0,  999.0,  999.0,  999.0,  999.0,  999.0,  999.0,  999.0,  999.0,  999.0,  999.0,  999.0,  999.0,  999.0,  999.0,  999.0,  999.0,  999.0,  999.0,  999.0,  999.0,  999.0,  999.0,  999.0,  999.0,  999.0,  999.0,  999.0,  999.0,  999.0,  999.0
2008/10/29 13:50,    0.1,    0.1,    0.0,    0.8,    0.7,    0.0,  999.0,    0.1,    0.6,    0.6,   -0.4,   -1.1,   -0.9,   -0.9,   -2.5,   -4.5,   -4.6,   -4.6,   -5.1,   -6.6,   -7.7,   -8.4,   -8.5,   -8.4,  999.0,   -7.8,   -7.6,  999.0,  999.0,   -6.7,  999.0,  999.0,  999.0,  999.0,  999.0,  999.0,  999.0,  999.0,  999.0,  999.0,  999.0,  999.0,  -11.3,  999.0,  -11.6,  -11.2,  -11.7,  999.0,  999.0,  999.0,  999.0,  999.0,  999.0,  999.0,  999.0,  999.0,  999.0,  999.0,  999.0,  999.0,  999.0,  999.0,  999.0,  999.0,  999.0,  999.0,  999.0,  999.0,  999.0,  999.0,  999.0,  999.0,  999.0,  999.0,  999.0,  999.0,  999.0,  999.0,  999.0,  999.0,  999.0,  999.0,  999.0,  999.0,  999.0,  999.0,  999.0,  999.0,  999.0,  999.0,  999.0,  999.0,  999.0,  999.0,  999.0,  999.0,  999.0,  999.0
2008/10/29 14:00,   -0.0,    0.2,  999.0,    0.6,    1.0,    0.9,    0.2,    0.1,    0.4,    0.1,   -0.3,   -0.5,   -0.4,   -0.7,  999.0,   -3.8,   -4.7,   -5.8,   -6.8,  999.0,  999.0,   -7.2,   -7.6,   -8.6,   -7.4,  999.0,  999.0,  999.0,   -2.4,    0.0,    0.0,  999.0,  999.0,  999.0,  999.0,  999.0,  999.0,  999.0,  999.0,  999.0,  999.0,  999.0,  999.0,  999.0,  999.0,  999.0,  999.0,  999.0,  999.0,  999.0,  999.0,  999.0,  999.0,  999.0,  999.0,  999.0,  999.0,  999.0,  999.0,  999.0,  999.0,  999.0,  999.0,  999.0,  999.0,  999.0,  999.0,  999.0,  999.0,  999.0,  999.0,  999.0,  999.0,  999.0,  999.0,  999.0,  999.0,  999.0,  999.0,  999.0,  999.0,  999.0,  999.0,  999.0,  999.0,  999.0,  999.0,  999.0,  999.0,  999.0,  999.0,  999.0,  999.0,  999.0,  999.0,  999.0,  999.0,  999.0
2008/10/29 14:10,    0.0,   -0.0,    0.0,    0.0,    0.3,    0.3,    0.2,    0.6,    0.3,   -0.0,   -0.3,   -0.1,   -0.1,   -0.1,   -0.2,   -4.4,   -5.5,   -6.4,   -7.0,   -7.1,  999.0,  999.0,   -6.7,   -6.8,   -6.9,   -7.2,  999.0,  999.0,    0.0,   -0.0,  999.0,  999.0,  999.0,  999.0,  999.0,  999.0,  999.0,  -10.2,  -11.7,  -11.2,  -11.0,  999.0,  999.0,  999.0,  999.0,  999.0,  999.0,  -12.0,  999.0,  999.0,  999.0,  999.0,  999.0,  999.0,  999.0,  999.0,  999.0,  999.0,  999.0,  999.0,  999.0,  999.0,  999.0,  999.0,  999.0,  999.0,  999.0,  999.0,  999.0,  999.0,  999.0,  999.0,  999.0,  999.0,  999.0,  999.0,  999.0,  999.0,  999.0,  999.0,  999.0,  999.0,  999.0,  999.0,  999.0,  999.0,  999.0,  999.0,  999.0,  999.0,  999.0,  999.0,  999.0,  999.0,  999.0,  999.0,  999.0,  999.0
2008/10/29 14:20,    0.0,    0.1,    0.0,    0.1,    0.0,    0.0,  999.0,    0.6,    0.6,    0.4,   -0.2,   -0.3,   -0.5,   -0.3,  999.0,   -5.3,   -5.8,   -6.0,   -7.0,   -6.9,   -6.9,  999.0,   -8.0,   -7.2,   -6.6,   -6.9,  999.0,  999.0,  999.0,  999.0,   -3.3,  999.0,  999.0,  999.0,  999.0,  999.0,  999.0,  -10.6,  -11.3,  999.0,  999.0,  999.0,  999.0,  999.0,  999.0,  999.0,  999.0,  -12.1,  999.0,  999.0,  999.0,  999.0,  999.0,  999.0,  999.0,  999.0,  999.0,  999.0,  999.0,  999.0,  999.0,  999.0,  999.0,  999.0,  999.0,  999.0,  999.0,  999.0,  999.0,  999.0,  999.0,  999.0,  999.0,  999.0,  999.0,  999.0,  999.0,  999.0,  999.0,  999.0,  999.0,  999.0,  999.0,  999.0,  999.0,  999.0,  999.0,  999.0,  999.0,  999.0,  999.0,  999.0,  999.0,  999.0,  999.0,  999.0,  999.0,  999.0
2008/10/29 14:30,    0.0,    0.2,  999.0,    0.2,    0.1,    0.1,   -0.1,    0.3,    0.1,    0.7,    0.0,   -0.1,   -0.2,   -0.5,   -3.0,   -5.6,   -5.8,   -5.8,  999.0,   -6.5,   -6.7,   -6.7,   -6.8,   -6.7,   -6.6,   -7.5,  999.0,  999.0,  999.0,   -6.0,  999.0,  999.0,  999.0,  999.0,  999.0,  999.0,  -10.3,  -10.3,  999.0,  999.0,  999.0,  999.0,  999.0,  999.0,  999.0,  -12.4,  999.0,  999.0,  999.0,  999.0,  999.0,  999.0,  999.0,  999.0,  999.0,  999.0,  999.0,  999.0,  999.0,  999.0,  999.0,  999.0,  999.0,  999.0,  999.0,  999.0,  999.0,  999.0,  999.0,  999.0,  999.0,  999.0,  999.0,  999.0,  999.0,  999.0,  999.0,  999.0,  999.0,  999.0,  999.0,  999.0,  999.0,  999.0,  999.0,  999.0,  999.0,  999.0,  999.0,  999.0,  999.0,  999.0,  999.0,  999.0,  999.0,  999.0,  999.0,  999.0
2008/10/29 14:40,   -0.1,    0.0,  999.0,    0.4,    0.3,    0.5,    0.6,    1.2,    0.2,    0.8,    0.3,   -0.4,   -0.1,    0.2,   -1.4,  999.0,   -3.7,   -4.4,   -5.3,   -5.1,   -6.0,   -5.2,   -5.6,   -5.6,   -5.8,   -6.1,   -5.8,  999.0,  999.0,  999.0,   -7.4,   -7.3,   -7.1,   -7.3,   -7.7,   -8.7,  999.0,  999.0,   -9.2,  999.0,  999.0,  999.0,  999.0,  999.0,  999.0,  999.0,  999.0,  999.0,  999.0,  999.0,  999.0,  999.0,  999.0,  999.0,  999.0,  999.0,  999.0,  999.0,  999.0,  999.0,  999.0,  999.0,  999.0,  999.0,  999.0,  999.0,  999.0,  999.0,  999.0,  999.0,  999.0,  999.0,  999.0,  999.0,  999.0,  999.0,  999.0,  999.0,  999.0,  999.0,  999.0,  999.0,  999.0,  999.0,  999.0,  999.0,  999.0,  999.0,  999.0,  999.0,  999.0,  999.0,  999.0,  999.0,  999.0,  999.0,  999.0,  999.0
2008/10/29 14:50,    0.1,    0.1,  999.0,    0.2,    0.7,    0.1,    0.1,    1.6,    0.8,    2.1,    3.3,    1.3,    1.0,   -0.3,    0.9,   -2.0,   -2.8,   -3.5,   -4.0,   -3.4,   -4.7,   -4.0,   -4.3,   -5.4,   -6.2,   -6.5,   -6.2,   -5.1,  999.0,  999.0,  999.0,   -6.9,  999.0,   -6.8,   -7.6,   -8.7,   -8.3,  999.0,  999.0,  999.0,  999.0,  999.0,  999.0,  999.0,  999.0,  999.0,  999.0,  999.0,  999.0,  999.0,  999.0,  999.0,  999.0,  999.0,  999.0,  999.0,  999.0,  999.0,  999.0,  999.0,  999.0,  999.0,  999.0,  999.0,  999.0,  999.0,  999.0,  999.0,  999.0,  999.0,  999.0,  999.0,  999.0,  999.0,  999.0,  999.0,  999.0,  999.0,  999.0,  999.0,  999.0,  999.0,  999.0,  999.0,  999.0,  999.0,  999.0,  999.0,  999.0,  999.0,  999.0,  999.0,  999.0,  999.0,  999.0,  999.0,  999.0,  999.0
2008/10/29 15:00,    0.0,    0.1,  999.0,    0.2,    0.3,    0.2,    0.1,    0.4,    0.4,    0.4,    1.0,    0.3,   -0.5,    0.9,   -0.7,   -2.1,   -3.0,   -3.6,   -3.6,   -3.1,   -4.0,   -4.2,   -5.0,   -5.8,   -6.3,   -6.6,   -5.3,   -6.4,   -6.2,   -6.4,   -6.7,   -5.8,   -6.4,   -7.5,   -8.2,  999.0,  999.0,  999.0,  999.0,  999.0,  999.0,  999.0,  999.0,  999.0,  999.0,  999.0,  999.0,  999.0,  999.0,  999.0,  999.0,  999.0,  999.0,  999.0,  999.0,  999.0,  999.0,  999.0,  999.0,  999.0,  999.0,  999.0,  999.0,  999.0,  999.0,  999.0,  999.0,  999.0,  999.0,  999.0,  999.0,  999.0,  999.0,  999.0,  999.0,  999.0,  999.0,  999.0,  999.0,  999.0,  999.0,  999.0,  999.0,  999.0,  999.0,  999.0,  999.0,  999.0,  999.0,  999.0,  999.0,  999.0,  999.0,  999.0,  999.0,  999.0,  999.0,  999.0
2008/10/29 15:10,    0.0,    0.6,    0.1,    0.5,    0.6,   -0.2,    0.0,    0.9,    1.6,    1.2,    0.3,   -0.1,   -3.5,   -5.9,  999.0,  999.0,  999.0,  999.0,   -3.7,   -6.9,   -6.0,   -8.0,   -8.3,   -8.1,   -8.1,   -8.3,   -9.1,   -8.4,   -9.0,   -8.8,   -8.6,  999.0,  999.0,  999.0,   -9.4,  999.0,  999.0,  999.0,  999.0,  999.0,  999.0,  999.0,  999.0,  999.0,  999.0,  999.0,  999.0,  999.0,  999.0,  999.0,  999.0,  999.0,  999.0,  999.0,  999.0,  999.0,  999.0,  999.0,  999.0,  999.0,  999.0,  999.0,  999.0,  999.0,  999.0,  999.0,  999.0,  999.0,  999.0,  999.0,  999.0,  999.0,  999.0,  999.0,  999.0,  999.0,  999.0,  999.0,  999.0,  999.0,  999.0,  999.0,  999.0,  999.0,  999.0,  999.0,  999.0,  999.0,  999.0,  999.0,  999.0,  999.0,  999.0,  999.0,  999.0,  999.0,  999.0,  999.0
2008/10/29 15:20,  999.0,    4.7,    4.5,  999.0,    3.9,    4.5,    4.9,    2.9,    3.0,    1.8,    0.7,   -0.7,   -1.1,   -1.7,   -2.9,   -3.4,   -3.8,   -4.6,   -5.2,   -6.0,   -5.4,   -4.6,   -4.8,   -5.1,   -5.8,   -4.9,   -5.4,   -4.5,   -5.7,   -5.3,   -5.8,   -6.5,   -7.5,   -8.6,   -9.4,  999.0,  999.0,  999.0,  999.0,  999.0,  999.0,  999.0,  -11.0,  -12.4,  -12.0,  999.0,  -12.2,  999.0,  -11.9,  999.0,  999.0,  999.0,  999.0,  999.0,  999.0,  999.0,  999.0,  999.0,  999.0,  999.0,  999.0,  999.0,  999.0,  999.0,  999.0,  999.0,  999.0,  999.0,  999.0,  999.0,  999.0,  999.0,  999.0,  999.0,  999.0,  999.0,  999.0,  999.0,  999.0,  999.0,  999.0,  999.0,  999.0,  999.0,  999.0,  999.0,  999.0,  999.0,  999.0,  999.0,  999.0,  999.0,  999.0,  999.0,  999.0,  999.0,  999.0,  999.0
2008/10/29 15:30,  999.0,    0.3,    2.3,    2.1,    4.0,    4.1,    0.0,    2.8,    2.3,    2.5,    1.3,   -0.2,   -1.3,   -2.8,   -4.1,   -5.0,   -5.8,   -5.7,   -5.7,   -5.7,   -6.3,   -5.5,   -4.7,   -4.4,   -4.8,   -4.5,   -4.4,   -4.9,   -5.1,   -5.8,   -5.1,   -7.0,   -8.1,   -9.2,   -9.2,   -9.6,  -11.2,  999.0,  -14.4,  999.0,  999.0,  999.0,  999.0,  999.0,  -12.2,  -10.4,  -10.4,  -11.2,  -10.4,  -10.2,   -9.6,  -10.7,  -10.2,  999.0,   -9.8,   -9.4,   -8.8,   -9.2,   -8.7,   -9.7,  -10.0,  -10.1,  -10.7,   -9.9,  -10.3,   -8.7,   -9.9,  -10.3,  -11.0,  -10.6,  -11.5,  -11.6,  -12.1,  -13.2,  -12.8,  -13.0,  -13.1,  -13.9,  -13.7,  -13.9,  999.0,  999.0,  999.0,  999.0,  999.0,  999.0,  999.0,  999.0,  999.0,  999.0,  999.0,  999.0,  999.0,  999.0,  999.0,  999.0,  999.0,  999.0
2008/10/29 15:40,  999.0,    5.2,    4.8,    3.8,    2.9,    2.0,    2.7,    2.5,    0.9,    0.4,   -0.2,   -1.3,   -2.4,   -2.7,   -3.0,   -2.2,   -2.9,   -3.0,   -5.4,   -5.0,   -7.6,   -7.2,   -5.5,   -4.2,   -5.0,   -3.7,   -1.9,    0.5,  999.0,   -1.8,   -1.0,   -3.6,  -11.6,  -11.4,   -7.6,   -7.4,  -12.4,  -12.2,  -11.7,  -13.9,  -16.7,  -15.4,  -16.2,  -15.1,  -12.6,  -11.1,  -11.0,  -10.9,   -9.1,  -10.7,  -10.9,  -11.1,  -10.7,  -11.6,  -12.6,  -12.8,  -12.5,  -12.5,  -12.5,  -11.6,  -11.9,  -11.6,  -11.4,  -11.1,  -11.7,  -11.9,  -11.5,  -12.1,  -12.6,  -12.2,  -13.1,  -14.3,  -14.3,  -14.9,  -15.4,  -15.5,  -14.5,  -14.0,  -13.3,  -13.9,  -13.2,  999.0,  -12.5,  999.0,  999.0,  999.0,  -13.7,  -14.6,  999.0,  999.0,  999.0,  999.0,  999.0,  999.0,  999.0,  999.0,  999.0,  999.0
2008/10/29 15:50,    1.8,    2.9,    3.1,    3.3,    1.7,    1.0,  999.0,    0.8,    1.7,  999.0,  999.0,   -2.0,  999.0,  999.0,   -3.9,   -2.9,   -1.8,   -3.2,   -7.4,  999.0,   -6.4,   -2.4,   -0.3,   -3.6,  999.0,  999.0,   -4.4,   -6.2,   -7.8,   -6.8,   -4.7,   -5.9,   -7.6,   -6.9,   -7.2,   -9.8,  -10.2,   -9.8,   -9.6,  -11.1,  -10.9,  -11.6,  -12.2,   -9.2,   -9.3,  -10.7,  -10.8,  -10.3,  -10.6,  -10.2,   -9.4,   -9.4,  -10.2,  -11.6,  -12.7,  -13.2,  -13.7,  -14.0,  -13.7,  -13.1,  -12.7,  -12.1,  -11.9,  -11.7,  -11.0,  -11.0,  -11.1,  -11.8,  -11.5,  -12.1,  -12.0,  -12.5,  -12.3,  -11.8,  -12.2,  -12.3,  -12.2,  -10.8,  999.0,  -12.1,  999.0,  999.0,  999.0,  999.0,  999.0,  999.0,  999.0,  999.0,  999.0,  999.0,  999.0,  999.0,  999.0,  999.0,  999.0,  999.0,  999.0,  999.0
2008/10/29 16:00,    1.4,    0.6,  999.0,    2.0,    0.6,    0.3,    0.8,   -1.9,    1.7,   -0.8,   -3.2,   -1.7,   -2.5,   -4.8,   -2.1,   -3.3,   -2.3,   -1.8,   -2.1,   -2.5,   -3.1,   -4.3,   -4.1,  999.0,   -5.0,   -4.7,   -6.2,   -5.7,   -7.2,   -6.1,   -6.6,   -7.2,   -7.8,   -8.3,   -8.9,   -9.0,   -9.1,   -9.9,  -10.7,  -11.6,  -11.5,  -12.2,  -12.2,  -12.2,  -13.5,  -12.9,  -15.2,  -13.4,  -12.4,  -13.2,  -13.7,  -14.5,  -13.4,  -14.9,  -13.9,  -14.2,  -14.4,  -13.8,  -14.8,  -14.7,  -14.2,  -14.3,  -14.4,  -13.8,  -13.5,  -12.7,  -12.3,  -12.0,  -12.1,  -12.2,  -12.2,  -12.2,  -12.3,  -11.7,  -11.8,  -11.6,  -11.9,  -12.1,  -11.7,  -11.6,  -12.5,  -12.6,  -12.4,  -12.0,  -11.0,  -11.1,  -10.9,  -10.5,  999.0,  -10.7,  -10.7,  -10.4,  -10.4,  -10.2,  -10.3,  -10.5,  999.0,  -12.0
2008/10/29 16:10,    1.6,  999.0,  999.0,  999.0,  999.0,    3.1,  999.0,    1.4,   -3.8,   -0.9,   -3.3,   -4.5,   -5.7,   -4.6,   -5.5,   -6.1,   -6.3,   -6.1,   -6.3,   -6.2,   -6.9,   -8.6,   -7.1,   -6.9,   -6.9,   -6.5,   -5.4,   -5.6,   -6.8,  999.0,   -4.5,   -5.1,   -9.4,   -8.1,   -7.8,   -7.3,   -7.4,  999.0,  999.0,  999.0,  999.0,  999.0,   -9.6,  999.0,  999.0,  -12.2,  -11.9,  -13.8,  -12.1,  999.0,  999.0,  -12.3,  -12.9,  -12.8,  -12.6,  -12.7,  -12.7,  -13.0,  -13.2,  -13.6,  -13.7,  -12.9,  -12.5,  -13.0,  -13.3,  -13.6,  -11.9,  -12.4,  -12.2,  -12.2,  -12.1,  -12.3,  -12.4,  -13.2,  -12.9,  -13.2,  -14.0,  -14.1,  -13.6,  -13.6,  -13.6,  -13.2,  -13.8,  -13.6,  -13.5,  -13.3,  -13.1,  -13.0,  -12.8,  -12.7,  -12.4,  -13.2,  -12.8,  -13.3,  -12.7,  -12.8,  -13.6,  -14.0
2008/10/29 16:20,    0.4,    1.9,    1.2,    1.7,  999.0,   -2.1,  999.0,  999.0,  999.0,  999.0,  999.0,   -2.9,   -4.0,   -4.5,   -4.9,   -5.2,   -5.9,   -6.1,   -5.9,   -6.5,   -6.9,   -7.6,   -8.0,  999.0,  999.0,   -6.1,  999.0,   -6.9,   -8.4,  999.0,  999.0,  999.0,   -7.7,   -7.7,   -6.8,   -8.4,   -6.4,    2.8,   -0.3,   -8.5,   -8.6,   -8.0,   -8.1,   -8.5,   -8.6,   -8.9,   -9.1,   -9.0,   -9.1,   -9.0,   -8.8,   -8.8,   -9.3,   -9.9,  -10.8,  -11.4,  -12.1,  -12.5,  -13.0,  -13.0,  -12.7,  -13.2,  -12.4,  -12.0,  -11.8,  -12.0,  -11.3,  -10.6,  -10.3,  -10.3,  -10.3,  -10.5,  -10.4,  -10.6,  -10.7,  -10.8,  -11.1,  -11.3,  -11.1,  -11.1,  -11.2,  -11.3,  -11.6,  -11.9,  -12.0,  -11.4,  -11.7,  -12.6,  -12.0,  -12.9,  -13.0,  -13.4,  -14.0,  -14.3,  -14.6,  -15.0,  -14.9,  -15.4
2008/10/29 16:30,    2.8,    3.3,    2.7,    1.8,    2.2,    0.9,   -0.1,   -0.6,   -0.9,   -1.4,   -3.7,   -4.6,   -4.5,   -4.7,   -5.3,   -5.5,   -5.8,   -7.0,   -6.5,   -7.5,   -7.7,   -7.6,   -7.6,   -6.9,   -6.3,   -5.8,   -5.8,   -7.9,   -8.7,  999.0,  999.0,  999.0,   27.9,   27.8,   28.9,   27.9,   28.0,   26.6,   26.2,   26.7,   26.6,   26.5,  999.0,  999.0,  999.0,  999.0,  -10.0,  -10.1,  -10.7,  -11.3,  -11.7,  -11.7,  -11.7,  -12.2,  -12.5,  -12.3,  -12.1,  -11.8,  -11.4,  -11.4,  -11.2,  -11.5,  -11.7,  -11.4,  -10.1,   -9.9,   -9.8,   -9.7,   -9.7,  -10.3,  -10.4,  -10.9,  -11.2,  -11.7,  -12.0,  -12.2,  -12.3,  -12.5,  -12.4,  -12.6,  -13.0,  -13.3,  -13.5,  -13.6,  -13.3,  -12.9,  -12.7,  -12.5,  -12.3,  -12.3,  -12.3,  -12.4,  -12.5,  -12.8,  -12.9,  -13.4,  -14.0,  -14.5
2008/10/29 16:40,    4.1,    4.0,    4.7,    5.0,    3.9,    2.3,    0.7,   -0.7,   -0.5,   -1.2,   -3.2,   -4.5,   -5.3,   -5.9,   -6.8,   -6.4,   -6.6,   -6.9,   -7.1,    4.0,   -0.6,   -1.3,   -0.7,   -0.6,    4.6,    2.1,   -2.5,    3.2,  999.0,  999.0,   22.8,   22.2,   24.9,   24.3,   24.7,   25.4,   24.9,   25.4,   24.7,   24.7,   24.1,   25.9,  999.0,  999.0,  999.0,   -9.3,   -9.8,  -10.1,  -10.4,  -10.3,  -10.2,  -10.0,  -10.1,  -10.1,  -10.2,   -9.9,   -8.9,   -8.4,   -8.3,   -8.4,   -8.7,   -8.7,   -8.6,   -8.4,   -8.3,   -8.0,   -7.7,   -8.1,   -8.6,   -9.6,   -9.7,   -9.3,  -10.1,  -10.5,  -10.4,  -11.0,  -11.5,  -11.2,  -11.9,  -12.4,  -11.5,  -11.7,  -11.9,  -12.2,  -12.3,  -12.6,  -12.4,  -12.8,  -12.4,  -12.7,  -12.4,  -12.7,  -12.7,  -13.3,  -13.0,  -13.4,  -13.8,  -13.2
2008/10/29 16:50,    4.2,    5.1,    4.6,    4.6,    4.3,    2.5,    0.7,   -0.4,   -0.4,   -0.9,   -2.7,   -4.0,   -4.8,   -5.3,   -5.6,   -5.9,   -5.8,   -6.4,   -5.8,   -6.4,    6.9,    6.7,    7.1,    3.9,    7.2,    6.1,   28.2,   27.9,   27.0,   26.6,   25.4,   25.0,   24.8,   25.1,   25.0,   24.8,   24.9,   24.0,   24.4,   24.8,   23.9,  999.0,  999.0,  999.0,  999.0,  999.0,  999.0,  999.0,  -10.2,   -9.2,   -8.3,   -7.9,   -7.6,   -7.5,   -7.6,   -7.8,   -8.1,   -8.8,   -9.1,   -9.4,   -9.0,   -8.9,   -8.3,   -7.4,   -7.0,   -6.6,   -6.8,   -7.3,   -7.8,   -7.8,   -7.9,   -7.7,   -7.9,   -8.3,   -8.7,   -9.4,   -9.5,   -9.8,  -10.3,  -10.2,  -10.3,  -10.0,   -9.8,   -9.7,   -9.3,   -9.4,   -9.0,   -8.4,   -7.9,   -8.2,   -8.1,   -8.6,   -9.0,   -9.4,   -9.6,  -10.0,  -10.3,  -11.0
2008/10/29 17:00,    4.2,    4.5,    5.3,    4.9,    3.1,    3.1,    0.8,   -0.5,   -0.2,   -1.5,   -2.6,   -4.0,   -3.9,   -4.5,   -3.8,   -4.0,   -4.5,   -5.0,   -4.5,   -4.8,   -5.4,   -5.6,   -6.1,   -6.1,   -6.7,   -5.6,  999.0,   27.2,   25.2,   25.4,   25.7,   24.6,   24.7,   26.0,   26.3,   26.4,   25.8,   26.8,   26.2,   25.7,   26.8,  999.0,  999.0,  999.0,  999.0,  999.0,  -10.7,  -10.7,  -11.4,  -11.3,  -10.8,   -9.5,   -9.2,   -9.4,   -9.7,   -9.6,   -9.7,   -9.7,   -9.7,   -9.7,   -9.6,   -9.8,  -10.1,  -10.2,  -10.5,  -10.4,  -10.3,   -9.9,   -9.2,   -9.2,   -8.6,   -8.3,   -8.3,   -8.3,   -8.4,   -8.6,   -8.6,   -8.3,   -9.4,   -8.3,   -8.5,   -8.7,   -8.8,   -8.5,   -8.5,   -9.4,   -9.5,   -9.0,   -8.9,   -9.2,   -9.8,   -8.4,   -9.6,  -10.8,  -11.0,  -10.6,  -10.8,  -10.9
2008/10/29 17:10,    4.1,    5.2,    4.3,    3.4,    2.7,    1.5,   -0.1,   -0.8,   -1.3,   -1.5,   -2.1,   -3.2,   -3.7,   -2.5,   -1.9,   -2.1,   -2.8,   -3.8,   -3.3,   -3.4,   -3.8,   -4.2,   -4.8,   -3.9,   -4.2,   -3.6,   -5.4,  999.0,   -5.3,  999.0,  999.0,   12.3,  999.0,  999.0,   28.5,   28.7,   28.8,   20.8,   20.4,   19.7,   27.6,  999.0,  999.0,  999.0,  999.0,  999.0,  999.0,  -11.0,  -11.5,  -11.8,  -11.2,  -11.1,  -11.2,  -11.4,  -11.1,  -10.8,  -10.6,  -10.3,  -10.6,  -10.5,  -10.1,  -10.0,   -9.5,   -9.3,   -9.1,   -8.7,   -8.2,   -7.8,   -7.6,   -7.5,   -7.6,   -7.5,   -7.2,   -8.0,   -7.1,   -7.3,   -7.9,   -8.5,   -9.1,   -9.5,   -9.7,  -10.2,  -10.7,  -11.0,  -11.7,  -12.0,  -12.4,  -12.8,  -13.1,  -13.3,  -13.5,  -13.7,  -13.0,  -13.3,  -12.5,  -12.8,  -13.0,  -12.5
2008/10/29 17:20,  999.0,    5.5,    5.1,    4.3,    3.0,    2.3,    1.1,    0.2,   -0.2,   -1.0,   -1.8,   -2.0,   -1.5,   -1.2,   -1.1,   -1.5,   -2.3,   -3.3,   -3.9,   -4.8,   -5.4,   -5.3,   -5.5,   -5.2,   -6.3,   -7.1,   -7.5,   -6.5,   -5.9,   -6.4,   -6.3,   -8.0,   -8.4,   -7.9,   -7.9,   -6.6,   -6.4,   -5.8,   -6.0,   -6.6,   -7.8,   -8.1,   -8.3,  999.0,   -7.3,  999.0,  999.0,  999.0,  -10.0,   -9.7,   -9.9,   -9.7,   -9.3,   -9.3,   -9.8,   -9.6,   -8.9,   -9.1,   -9.4,   -9.6,   -9.5,   -9.6,   -9.5,   -9.5,   -9.1,  -10.3,   -9.5,   -9.9,  -10.1,  -10.1,  -10.3,  -10.3,   -9.8,  -10.3,  -10.4,  -10.2,  -10.4,  -10.8,  -10.8,  -10.5,  -10.7,  -11.6,  -12.8,  -12.5,  -12.5,  -13.0,  -13.5,  -15.8,  -13.7,  -13.7,  -13.8,  -13.4,  -13.5,  -12.6,  -12.6,  -11.4,  -11.7,  -11.1
2008/10/29 17:30,    4.4,    5.4,    5.5,    5.3,    3.9,    2.5,    1.3,    0.9,    0.5,   -0.3,   -1.6,   -1.5,   -1.2,   -1.1,   -2.0,   -2.4,   -3.5,   -4.3,   -4.8,   -5.2,   -5.3,   -5.1,   -5.6,   -5.4,   -5.9,   -6.0,   -6.0,   -7.1,    2.8,    2.4,   12.2,    6.1,    9.4,    9.1,    5.8,    8.6,   11.8,   11.5,    8.7,    8.0,    7.6,    7.9,   -9.6,   -8.6,   -8.2,   -8.8,   -9.5,   -9.4,   -9.3,   -9.7,   -9.6,   -9.6,   -9.4,   -9.6,  -10.2,  -10.1,   -9.6,  999.0,  -10.4,  -10.5,  -10.6,  -10.5,  -11.8,  -11.6,  -12.1,  -12.7,  -12.2,  -11.0,  -10.9,  -11.8,  -12.0,  -11.9,  -12.3,  -11.2,  -11.3,  -11.3,  -10.8,  -11.2,  -11.6,  -11.9,  -12.0,  -12.2,  -11.7,  -12.0,  -12.2,  -11.4,  -11.7,  -11.7,  -12.8,  -12.6,  -13.4,  -12.7,  -12.8,  -14.6,  -13.2,  -12.4,  -12.5,  999.0
2008/10/29 17:40,    4.1,    4.5,    5.2,    4.9,    3.8,    2.6,    1.2,    1.0,   -0.2,   -1.2,   -0.9,   -1.5,   -1.6,   -1.1,   -1.2,   -0.8,   -1.4,   -2.0,   -3.1,   -3.3,   -3.4,   -1.9,   -3.1,   -2.8,  999.0,   27.8,   27.4,  999.0,  999.0,  999.0,   28.4,   28.0,   28.0,   27.8,   27.6,   27.4,   27.8,   28.6,   26.7,   28.4,   28.0,   28.0,  999.0,  999.0,  999.0,  999.0,   -9.0,   -9.4,   -9.9,  -10.3,  -10.6,  -11.0,  -11.4,  -11.7,  -12.3,  -12.6,  -12.7,  -12.9,  -12.9,  -12.4,  -12.0,  -12.1,  -12.2,  -12.5,  -12.8,  -13.3,  -13.3,  -13.4,  -13.4,  -14.0,  -13.4,  -13.3,  -13.3,  -13.8,  -13.3,  -13.3,  -13.0,  -12.8,  -13.1,  -13.1,  -13.2,  -13.3,  -13.9,  -13.2,  -13.2,  -13.2,  -12.8,  -12.9,  -12.7,  -12.8,  -12.7,  -12.6,  -12.6,  -12.5,  -12.4,  -12.8,  -12.9,  -13.1
2008/10/29 17:50,  999.0,    4.0,    4.6,    4.2,    3.4,    2.4,    1.2,    0.6,    0.1,   -1.2,   -1.1,   -1.3,   -0.6,   -1.3,   -1.4,   -1.4,   -2.4,   -2.9,   -3.3,   -3.5,   -3.6,   -3.5,   -4.3,   -4.8,  999.0,   -6.3,   -5.5,   -5.0,  999.0,   29.8,   29.0,   28.0,   28.8,   28.6,   28.3,   28.0,   27.7,   27.2,   26.8,   27.0,   26.1,   24.7,  999.0,  999.0,  999.0,  999.0,  999.0,  -12.6,  -12.7,  -13.0,  -12.7,  -12.6,  -12.3,  -12.1,  -12.2,  -12.4,  -12.7,  -12.9,  -12.9,  -13.0,  -13.1,  -13.0,  -13.1,  -13.1,  -12.7,  -12.7,  -12.6,  -12.8,  -12.8,  -12.4,  -12.3,  -12.2,  -11.9,  -11.9,  -12.0,  -12.1,  -12.2,  -12.2,  -12.4,  -12.6,  -12.7,  -12.3,  -12.2,  -11.9,  -11.9,  -11.8,  -11.8,  -11.6,  -11.5,  -11.6,  -11.4,  -11.3,  -11.0,  -10.9,  -10.6,  -10.6,  -10.4,  -10.7
2008/10/29 18:00,    3.7,    3.4,    4.5,    5.0,    3.9,    2.1,    1.1,    0.1,   -0.2,   -0.9,   -1.2,   -1.5,   -1.9,   -2.1,   -1.8,   -1.8,   -2.5,   -2.8,   -3.1,   -4.1,   -3.4,   -3.5,   -5.1,   -5.8,   -5.3,   -5.1,   -5.5,   -6.6,  999.0,  999.0,  999.0,   26.5,   26.6,   26.6,   26.5,   26.2,   25.1,   24.8,   24.4,   24.7,   24.1,   23.7,   24.0,  999.0,  999.0,  999.0,  999.0,  -12.5,  -12.8,  -12.4,  -12.2,  -12.1,  -12.3,  -12.1,  -11.8,  -11.8,  -11.5,  -11.5,  -11.6,  -11.8,  -12.1,  -12.1,  -12.4,  -12.7,  -13.3,  -14.1,  -14.7,  -15.3,  -15.0,  -13.0,  -13.0,  -12.8,  -13.1,  -12.9,  -12.9,  -13.4,  -13.9,  -13.7,  -13.7,  -13.4,  -12.6,  -11.9,  -11.3,  -11.5,  -10.6,  -10.3,  -10.4,  -10.5,  -10.0,  -10.2,  -10.5,  -10.5,  -10.9,  -10.9,  -11.0,  -11.3,  -11.4,  -11.2
2008/10/29 18:10,  999.0,    2.8,    3.9,    4.3,    2.9,    1.5,    0.3,    0.4,   -0.6,   -0.9,   -1.1,   -1.5,   -1.5,   -1.8,   -1.7,   -1.7,   -2.5,   -2.7,   -3.4,   -2.7,   -2.2,   -3.8,   -5.1,   -4.4,   -4.5,   -4.6,   -4.9,   -5.8,   -6.0,  999.0,  999.0,  999.0,  999.0,   15.4,   19.9,   20.1,   24.9,   24.5,   19.3,   17.5,   17.4,   17.2,   25.0,  999.0,  999.0,  999.0,  999.0,  -12.9,  -13.1,  -12.5,  -12.0,  -12.1,  -12.0,  -12.1,  -11.7,  -11.6,  -11.4,  -11.2,  -11.1,  -11.1,  -11.1,  -11.0,  -11.4,  -11.4,  -11.5,  -11.4,  -11.5,  -11.5,  -11.3,  -11.0,  -11.1,  -11.0,  -11.2,  -11.2,  -10.9,  -10.8,  -10.4,   -9.9,  -10.1,  -10.6,  -10.9,  -11.1,  -12.0,  -12.5,  -12.1,  -11.9,  -11.9,  -11.8,  -11.7,  -11.6,  -11.7,  -11.8,  -11.9,  -11.6,  -11.6,  -12.3,  -12.1,  -11.9
2008/10/29 18:20,    2.4,    3.3,    5.0,    3.7,    2.2,    1.1,    0.7,   -0.1,   -0.6,   -1.0,   -1.9,   -1.8,   -1.1,   -1.5,   -1.8,   -1.7,   -2.0,   -3.2,   -2.3,   -1.5,   -2.3,   -2.4,   -3.1,   -2.5,   -3.4,   -5.0,   -5.3,   -7.1,   -8.4,   -9.2,   -8.4,  999.0,   -7.0,   -8.2,  999.0,  999.0,  999.0,  999.0,  999.0,  999.0,   -8.1,   -7.2,   -8.8,   -9.2,  999.0,  999.0,   -9.6,  -11.9,  -12.2,  -12.5,  -11.3,  -10.9,  -10.9,  -11.0,  -11.0,  -11.0,  -11.2,  -11.0,  -11.1,  -11.1,  -11.2,  -11.2,  -11.2,  -11.3,  -11.4,  -11.3,  -11.3,  -11.1,  -11.1,  -10.9,  -10.5,  -10.3,  -10.3,  -10.5,  -10.5,  -10.3,  -10.1,   -9.7,   -9.6,  -10.1,  -11.1,  -12.1,  -12.6,  -12.7,  -13.0,  -12.6,  -12.8,  -12.3,  -11.9,  -11.5,  -11.2,  -11.2,  -11.3,  -11.8,  -12.3,  -12.5,  -12.4,  -12.4
2008/10/29 18:30,    2.6,    2.9,    4.5,    4.0,    2.8,    1.5,    0.9,    0.7,   -1.1,   -0.7,   -1.3,   -2.1,   -1.2,   -1.0,   -1.5,   -1.3,   -1.7,   -3.1,   -3.1,   -2.2,   -2.6,   -3.3,   -3.1,   -2.9,   -3.5,   -5.2,   -5.6,   -6.5,   -6.0,   -6.1,   -6.4,   -6.3,   -6.0,   -6.2,   -6.9,   -6.2,   -6.7,   -6.7,   -5.7,   -5.7,   -6.1,   -5.9,   -8.1,  999.0,  999.0,  999.0,  999.0,  999.0,  -10.4,  -10.1,   -9.9,  -10.0,  -10.3,  -10.1,   -9.7,  -10.1,  -10.4,  -10.5,  -10.0,   -9.8,   -9.9,  -10.2,  -10.4,  -10.6,  -10.6,  -10.6,  -10.3,  -10.0,   -9.8,   -9.8,   -9.8,   -9.9,  -10.0,  -10.6,  -11.0,  -11.9,  -12.6,  -13.0,  -13.4,  -13.9,  -14.2,  -14.6,  -14.7,  -15.0,  -14.9,  -14.9,  -14.9,  -14.6,  -14.1,  -15.3,  -14.0,  999.0,  999.0,  -14.1,  -13.4,  999.0,  -14.2,  999.0
2008/10/29 18:40,    2.0,    1.7,    2.5,    3.2,    2.2,    1.8,    0.3,    0.5,   -1.4,   -2.2,   -3.9,   -3.5,   -3.1,   -1.9,   -2.8,   -2.6,   -4.5,   -3.8,   -3.8,   -4.1,   -3.8,   -1.2,   -1.8,   -1.2,   -2.4,   -2.3,   -2.5,   -3.6,   -4.3,   -4.5,   -4.6,   -5.3,   -4.9,   -4.4,   -6.0,   -7.1,   -7.6,   -7.0,   -7.2,   -6.9,   -7.5,   -7.8,   -8.3,   -7.8,   -8.2,  999.0,  999.0,  -12.0,  -11.4,  -11.5,  -10.7,  -10.7,  -10.8,  -10.4,   -9.8,  -10.1,  -10.4,  -10.4,  -10.0,   -9.6,   -9.5,   -9.4,   -9.3,   -9.2,   -9.5,   -9.3,   -9.4,   -9.5,   -9.6,   -9.5,   -9.5,   -9.7,  -10.2,  -10.8,  -11.9,  -13.2,  999.0,  999.0,  999.0,  999.0,  -14.1,  -14.6,  -15.3,  -14.3,  -13.3,  -13.2,  -12.9,  -12.2,  999.0,  -11.3,  999.0,  -12.0,  -12.3,  -12.3,  -12.5,  -13.0,  999.0,  -13.2
2008/10/29 18:50,   -0.2,    0.0,    1.1,    2.0,    2.4,    3.1,    2.8,    3.7,    3.0,    3.1,    2.7,    0.5,   -0.1,   -1.2,   -2.5,   -2.3,   -3.0,   -3.1,   -3.3,   -3.1,   -1.7,   -1.6,   -0.2,   -0.5,   -0.8,   -1.1,   -1.6,   -0.7,   -1.0,   -1.6,   -1.5,   -1.6,   -2.2,   -1.5,   -3.6,   -3.4,   -3.9,   -4.3,   -5.4,   -5.9,   -6.9,   -7.0,   -7.2,   -7.1,   -6.4,   -6.2,  999.0,  999.0,  -10.8,  -11.5,  -11.4,  -11.4,  -11.2,  -11.1,  -10.8,  -10.9,  -11.2,  -11.4,  -11.5,  -11.4,  -11.0,  -10.5,  -10.1,  -10.0,   -9.9,   -9.9,   -9.8,   -9.7,   -9.4,   -9.1,   -9.3,   -9.8,  -10.5,  -11.2,  -12.0,  -12.5,  -13.1,  -13.2,  -12.6,  -12.5,  -12.2,  -12.4,  999.0,  999.0,  -11.5,  -11.6,  -11.5,  -11.8,  -11.7,  -12.1,  -12.6,  -13.0,  -13.7,  -13.7,  -14.1,  999.0,  -14.6,  -15.0
2008/10/29 19:00,   -1.8,   -0.1,    0.5,    1.2,    1.2,    1.5,    2.2,    2.1,    2.3,    2.3,   -0.6,    0.6,   -0.9,   -0.8,   -2.1,   -2.7,   -3.7,   -5.8,   -3.8,   -4.2,   -4.0,   -4.9,   -2.1,   -2.1,  999.0,   -3.1,   -4.9,   -5.4,   -3.5,   -2.9,   -4.5,   -6.9,   -4.3,   -4.6,   -4.7,   -6.4,   -6.6,   -9.3,   -8.8,  -11.2,  -12.0,  -12.4,  -10.7,  999.0,  -10.2,   -7.9,  999.0,   -7.7,   -7.8,   -9.0,   -9.1,  -10.2,   -9.7,   -9.7,   -9.5,   -9.1,   -8.8,   -9.2,   -9.7,  -10.1,  -10.2,   -9.4,   -9.1,   -9.4,   -9.9,  -10.4,  -10.7,  -11.0,  -11.1,  -11.3,  -11.7,  -12.2,  -12.7,  -13.1,  -13.1,  -13.4,  -13.4,  -13.4,  -13.0,  -12.7,  -12.5,  -12.6,  -12.6,  -12.4,  -12.1,  -12.3,  -12.4,  -12.4,  -12.6,  -12.7,  -13.2,  -13.7,  -13.8,  -14.3,  -14.3,  999.0,  999.0,  999.0
2008/10/29 19:10,   -0.0,    0.9,    0.8,    2.3,    2.4,    2.2,    2.1,    1.5,    0.9,   -0.2,   -0.5,   -0.0,    0.1,    0.3,    0.7,   -0.9,    0.6,    1.2,    1.4,    2.0,   -0.4,   -0.3,   -0.6,   -0.9,   -2.8,   -2.8,   -3.3,   -3.9,   -4.1,   -6.1,   -6.3,   -6.7,   -5.0,  999.0,   -6.7,  999.0,   -7.6,  999.0,  999.0,  999.0,  999.0,  999.0,  999.0,  999.0,  999.0,  999.0,  999.0,   -3.9,   -4.9,  999.0,   -6.4,   -8.0,   -9.4,  -10.4,  -10.2,  -10.5,  -10.8,  -11.1,  -10.7,  -10.4,  -10.0,   -9.7,   -9.7,   -9.7,   -9.8,  -10.2,  -10.8,  -11.7,  -12.3,  -12.5,  -12.5,  -12.6,  -12.6,  -12.7,  -12.6,  -12.8,  -13.1,  -13.2,  -13.4,  -13.7,  -13.8,  -13.8,  -14.0,  -14.1,  -14.2,  -13.8,  -14.0,  -14.1,  -14.1,  999.0,  999.0,  -14.8,  999.0,  -14.9,  999.0,  999.0,  999.0,  999.0
2008/10/29 19:20,    1.6,    0.8,    0.5,    1.5,    1.4,    2.7,    3.0,    3.3,    3.4,    2.2,    3.0,    2.3,    3.5,    3.7,    3.2,    2.5,    3.1,    1.7,    1.1,    0.8,   -0.0,   -1.4,    0.2,   -2.0,   -2.6,   -3.0,   -2.4,   -3.4,   -4.0,   -5.3,   -5.9,   -5.2,   -6.2,   -7.1,  999.0,  999.0,  999.0,  999.0,  999.0,  999.0,  999.0,  999.0,  999.0,   -8.2,   -8.3,   -7.9,   -8.2,   -6.8,   -6.5,   -6.7,   -7.2,   -8.2,   -9.0,   -9.5,   -9.6,  -10.2,  -10.2,  -10.4,  -10.4,  -10.4,  -10.7,  -11.0,  -11.1,  -11.2,  -11.0,  -10.3,  -10.4,  -10.4,  -10.8,  -11.1,  -11.1,  -11.1,  -10.9,  -10.8,  -11.0,  -11.1,  -11.5,  -11.7,  -11.6,  -12.2,  -12.6,  -10.9,  -13.7,  999.0,  999.0,  999.0,  999.0,  -13.8,  -14.7,  999.0,  -15.3,  999.0,  999.0,  999.0,  999.0,  999.0,  999.0,  999.0
2008/10/29 19:30,    4.6,    5.1,    4.6,    2.7,    1.4,    1.4,    0.9,    1.4,    2.9,    4.0,    4.4,    5.4,    3.7,    4.3,    3.6,    4.5,    4.8,    4.5,    4.7,    4.2,    4.7,    4.2,    3.8,    2.7,    1.1,    1.0,    0.4,    0.2,   -0.3,   -1.7,   -0.5,   -0.4,  999.0,   -3.5,   -2.6,  999.0,   -4.2,  999.0,  999.0,   16.3,   16.1,  999.0,  999.0,  999.0,   -8.6,   -8.7,   -8.3,   -8.5,   -7.6,   -7.9,   -8.2,   -8.7,   -8.8,   -9.3,   -9.5,   -9.7,   -9.7,   -9.7,   -9.5,   -9.4,   -9.1,   -9.0,   -8.6,   -8.1,   -7.8,   -8.1,   -8.1,   -8.0,   -8.2,   -8.2,   -8.2,   -8.3,   -8.3,   -8.2,   -8.2,   -7.7,   -7.2,   -7.0,   -6.9,   -6.7,   -6.6,   -6.2,   -6.5,   -7.1,   -7.6,   -8.5,   -9.7,  -10.7,  -11.8,  -12.7,  -13.5,  -13.4,  -14.1,  -13.3,  999.0,  999.0,  999.0,  999.0
2008/10/29 19:40,    4.3,    4.5,    3.7,    3.2,    2.8,  999.0,  999.0,  999.0,  -19.8,  -28.8,  999.0,  999.0,  999.0,  999.0,    6.6,    7.1,    7.1,    7.0,    6.7,    7.0,    7.5,    7.3,    7.6,    6.8,    5.7,    6.1,    5.8,    5.8,    6.5,    6.9,    4.7,    4.1,    4.5,    6.0,    6.2,    3.4,    1.0,    5.6,   -0.6,   -1.7,    1.8,   -1.3,  999.0,    3.1,   -1.3,   -1.3,    0.7,   -1.5,   -4.0,   -9.9,   -6.2,   -9.1,   -8.5,   -5.1,   -7.4,   -6.9,   -5.4,   -5.9,   -5.6,   -5.2,   -5.3,   -5.5,   -4.0,   -5.8,   -5.8,   -6.2,   -5.5,   -5.8,   -5.7,   -5.4,   -5.7,   -5.2,   -5.3,   -5.6,   -6.0,   -6.5,   -6.8,   -6.8,   -6.7,   -7.1,   -7.3,   -7.5,   -7.7,   -7.6,   -7.4,   -7.5,   -7.7,   -8.2,   -8.7,   -9.6,  -10.2,  -10.6,  -10.8,  -12.1,  -12.4,  -12.5,  -12.7,  999.0
2008/10/29 19:50,    4.3,    3.8,    3.2,  999.0,  999.0,  999.0,  -31.1,  -26.8,  -26.1,  999.0,  999.0,    2.9,    3.5,    2.7,    2.2,    0.8,   -0.1,   -0.4,   -0.7,   -1.0,   -0.8,    0.5,   -0.1,    1.5,    7.6,    2.1,    7.1,    0.9,    9.0,    5.3,    8.2,    8.6,    0.8,    1.8,    0.7,   -1.3,   -0.8,   -4.0,    0.7,  999.0,    0.3,   -0.5,    0.6,   -2.4,   -1.4,   -2.2,   -3.5,   -3.4,   -2.9,   -3.1,  999.0,  999.0,  999.0,   -1.5,   -5.2,   -4.9,   -4.9,   -4.5,   -4.5,   -2.9,   -4.5,   -3.9,   -3.0,   -3.4,   -3.9,   -2.5,   -1.7,   -1.0,   -1.4,   -1.4,   -1.4,   -0.9,   -2.4,   -3.4,   -3.5,   -3.2,   -2.8,   -3.2,   -5.1,   -5.8,   -4.9,   -5.4,   -5.1,   -7.0,   -3.6,   -3.4,   -4.1,   -7.3,   -6.3,   -8.8,   -9.5,   -9.6,  -10.4,  -11.1,  -11.9,  -12.0,  -11.9,  -12.2
2008/10/29 20:00,    3.2,    3.4,  999.0,  999.0,  999.0,  999.0,  -30.0,  -21.8,  -18.3,  -21.9,    0.4,    0.7,  -22.8,  999.0,   -0.2,    0.1,  999.0,  999.0,  999.0,    0.6,    0.2,   -0.8,   -1.3,   -1.7,   -1.8,   19.0,   11.8,   12.2,   17.2,   17.9,    3.3,   15.4,    6.4,   11.9,   18.8,  999.0,   18.1,    6.8,    6.5,   12.1,  999.0,   17.1,   11.7,    1.7,    2.8,   -6.1,   -4.9,   -4.4,   -5.0,   -4.4,   -3.2,   -3.5,   -3.0,   -3.9,   -3.9,   -3.8,   -4.2,   -3.5,   -3.6,   -3.1,   -3.0,   -3.7,   -3.9,   -4.1,   -4.3,   -4.2,   -4.8,   -4.5,   -3.8,   -4.9,   -4.2,   -3.6,   -3.8,   -3.4,   -3.2,   -3.8,   -4.5,   -4.7,   -4.6,   -6.5,   -7.4,   -8.5,   -7.9,   -8.8,  -10.5,   -8.2,  -11.7,  -12.4,  -12.1,  -12.7,  -10.3,  -10.3,  -10.5,  -10.9,  -11.1,  -10.4,  -12.4,  -11.4
2008/10/29 20:10,    2.7,    3.4,    4.1,   -4.7,   -4.7,  -10.0,  -11.0,  -11.3,  -12.0,  -15.6,   -9.5,    1.9,   -4.2,    1.5,    1.2,   -6.9,   -7.3,   -7.4,    2.0,    1.3,    0.4,    0.2,    0.4,    0.9,    1.0,    1.5,    0.3,    0.0,   -0.4,   -1.1,   -1.5,   -2.0,   -2.2,   -2.6,   -1.7,   -3.5,   -5.9,   -8.1,   -7.5,  999.0,   -8.4,  999.0,  999.0,  999.0,   -4.6,   -4.4,   -4.6,  999.0,   -3.3,   -2.2,   -1.8,   -0.8,   -0.3,    0.1,   -0.7,   -0.8,   -0.4,   -0.8,   -0.4,   -1.8,  999.0,   -2.6,   -3.3,   -3.6,   -3.4,   -3.3,   -3.0,   -4.0,   -4.8,   -5.9,   -6.5,   -8.0,   -8.1,  999.0,   -9.8,  -10.3,  -11.0,  -11.7,  -11.9,  -12.4,  -12.7,  -12.7,  -12.9,  -12.7,  -12.9,  -12.8,  -12.8,  -12.8,  -12.9,  -13.1,  -13.4,  -13.0,  -13.3,  -12.6,  -12.2,  -11.9,  -10.6,  -10.6
2008/10/29 20:20,    3.1,    3.3,    3.1,    3.5,    5.3,   -0.1,    4.6,   -2.2,  -12.8,    0.3,   -4.2,   -8.4,  -10.8,  -15.1,  -14.4,  -10.9,  -11.7,   -9.7,   -5.7,    0.7,    1.0,    0.0,    0.2,   -0.2,   -1.9,   -3.1,   -3.4,   -4.4,   -4.9,   -6.7,   -7.3,   -7.2,   -7.0,  999.0,   -7.4,  999.0,   -8.8,  999.0,   -5.7,   -5.2,  999.0,   -5.8,  999.0,   -9.3,   -6.9,   -5.8,   -5.5,   -5.1,   -4.5,   -4.0,   -3.5,   -2.5,   -1.7,   -1.4,   -1.1,   -0.8,   -0.6,   -1.2,   -1.4,   -2.2,   -2.7,   -3.8,   -4.9,   -5.8,   -6.4,   -7.1,   -7.7,   -8.3,   -8.8,   -9.1,   -9.3,   -9.2,   -9.0,   -9.0,   -9.1,   -9.2,   -9.5,   -9.8,   -9.9,  -10.2,   -9.7,   -9.7,  -10.5,  -10.6,  -10.7,  -10.6,  -10.7,  -11.0,  -11.0,  -10.7,  -11.0,  -10.9,  -10.7,  -11.5,  -11.0,  -11.1,  999.0,  -11.5
2008/10/29 20:30,  999.0,    5.2,    3.9,    3.3,    3.8,    4.7,    3.7,    4.7,    3.9,    3.5,    2.1,    0.3,   -0.2,   -1.0,   -0.9,   -1.6,   -2.2,   -2.1,   -2.4,   -3.7,   -4.6,   -4.4,   -4.0,   -4.0,  999.0,  999.0,  999.0,  999.0,  999.0,  999.0,  999.0,  999.0,  999.0,   28.3,   28.7,   28.3,   27.3,   29.1,   28.8,  999.0,   29.3,  999.0,  999.0,  999.0,  999.0,  999.0,  999.0,   -4.8,   -4.9,   -4.9,   -4.7,   -3.9,   -3.1,   -2.8,   -2.6,   -1.9,   -2.8,   -1.8,   -2.2,   -2.6,   -3.2,   -3.8,   -4.6,   -5.2,   -5.4,   -5.6,   -6.3,   -7.4,   -7.7,   -8.0,   -8.0,   -8.6,   -8.6,   -8.9,   -8.9,   -8.8,   -9.0,   -9.1,   -9.1,   -9.5,  -10.3,  -10.8,  -11.2,  -11.3,  -11.8,  -12.3,  -12.4,  -12.6,  -12.8,  -12.8,  -12.1,  -11.9,  -11.6,  -11.4,  -11.3,  -11.3,  -11.1,  -11.8
2008/10/29 20:40,  999.0,    5.8,    4.0,    3.4,    4.1,    4.0,    3.5,    3.7,    2.9,    2.8,    2.9,    2.3,    2.3,    2.1,    0.8,   -0.7,   -1.2,   -1.8,   -2.8,   -3.2,   -4.0,   -4.5,   -3.2,   -3.6,   -4.1,  999.0,  999.0,  999.0,  999.0,   25.4,   25.7,   24.9,   25.5,   25.5,   26.6,   26.7,   26.5,   27.3,   28.2,   28.4,   28.3,  999.0,  999.0,  999.0,  999.0,  999.0,  999.0,  999.0,   -4.5,   -5.0,   -4.8,   -4.4,   -3.8,   -2.9,   -2.5,   -1.9,   -1.6,   -1.6,   -2.2,   -2.8,   -3.7,   -4.6,   -5.4,   -6.2,   -7.2,   -7.7,   -7.8,   -7.5,   -7.5,   -7.6,   -7.7,   -7.9,   -7.9,   -8.3,   -9.0,   -9.4,   -9.6,   -9.5,   -9.6,  -10.0,  -10.5,  -10.9,  -11.7,  -12.3,  -12.7,  -13.1,  -13.3,  -13.2,  -12.9,  -12.4,  -12.3,  -11.9,  -11.7,  -11.8,  -11.8,  -11.7,  -11.7,  -11.7
2008/10/29 20:50,    6.5,    6.7,    5.8,    4.3,    3.8,    3.4,    4.0,    4.4,    3.7,    3.3,    3.0,    3.6,    1.9,    0.8,   -1.1,   -2.4,   -2.7,   -3.2,   -3.6,   -4.2,   -4.4,   -3.8,   -2.8,   -4.1,   -5.0,   -6.0,   -6.7,  999.0,  999.0,  999.0,   27.5,   26.8,   26.9,   26.8,   26.2,   26.7,   26.8,   27.4,   27.6,   28.2,   28.4,  999.0,  999.0,  999.0,  999.0,  999.0,  999.0,   -4.4,   -4.9,   -5.4,   -5.4,   -5.6,   -5.4,   -5.1,   -5.0,   -5.0,   -5.2,   -5.7,   -5.7,   -5.9,   -6.3,   -6.9,   -7.4,   -7.7,   -8.0,   -8.2,   -8.5,   -8.6,   -8.4,   -8.2,   -8.1,   -8.1,   -8.4,   -9.2,   -9.7,   -9.7,   -9.7,   -9.9,  -10.3,  -10.5,  -10.7,  -11.0,  -11.2,  -11.6,  -11.8,  -11.9,  -12.2,  -12.7,  -13.1,  -13.3,  -13.4,  -13.7,  -13.8,  -14.1,  -13.7,  -12.9,  -12.8,  -12.3
2008/10/29 21:00,    6.8,    6.8,    5.7,    4.4,    2.6,    2.8,    3.2,    3.5,    3.9,    3.5,    3.7,    3.7,    2.4,    0.4,   -0.9,   -2.0,   -3.0,   -3.8,   -4.7,   -4.8,   -4.5,   -3.7,   -3.8,   -4.7,   -4.9,   -6.0,  999.0,  999.0,  999.0,  999.0,  999.0,   26.5,   25.8,   26.9,   27.2,   27.4,   27.6,   27.7,   28.5,  999.0,   29.5,  999.0,  999.0,  999.0,  999.0,  999.0,  999.0,   -6.0,   -5.8,   -5.8,   -5.6,   -5.8,   -6.1,   -6.2,   -6.3,   -6.7,   -7.0,   -7.1,   -7.0,   -7.0,   -7.2,   -7.5,   -7.8,   -8.2,   -8.0,   -7.7,   -7.4,   -7.5,   -7.4,   -7.6,   -8.2,   -8.7,   -9.4,  -10.1,  -10.6,  -10.8,  -11.1,  -11.5,  -12.0,  -12.4,  -12.6,  -12.6,  -12.5,  -12.3,  -12.3,  -12.3,  -12.1,  -11.9,  -12.3,  -12.8,  -13.1,  -13.5,  -13.8,  -14.0,  -14.2,  -14.0,  -13.5,  -12.6
2008/10/29 21:10,    4.3,    6.4,    5.0,    4.3,    3.0,    3.3,    3.7,    3.3,    4.1,    4.0,    5.4,    4.4,    2.2,    0.8,   -0.5,   -1.5,   -3.3,   -3.8,   -4.5,   -3.9,   -3.7,   -2.8,   -3.9,   -4.4,   -4.8,   -5.4,   -6.0,  999.0,  999.0,  999.0,  999.0,   27.4,   27.5,   28.4,   28.2,   27.8,   28.4,   28.5,   28.4,   28.6,   28.6,   28.8,  999.0,  999.0,  999.0,  999.0,   -6.2,   -6.8,   -6.9,   -6.8,   -6.7,   -6.4,   -6.5,   -6.8,   -7.1,   -7.3,   -7.7,   -8.0,   -8.1,   -8.0,   -7.8,   -7.5,   -7.6,   -8.0,   -8.2,   -8.0,   -8.1,   -8.3,   -8.8,   -9.2,   -9.7,   -9.8,  -10.1,  -10.5,  -10.7,  -11.0,  -11.0,  -11.2,  -11.3,  -11.1,  -11.1,  -11.4,  -11.9,  -12.1,  -12.0,  -12.6,  -12.6,  -12.6,  -12.4,  -12.5,  -12.3,  -12.4,  -12.6,  999.0,  999.0,  -12.7,  999.0,  999.0
2008/10/29 21:20,    5.0,    5.6,    5.3,    4.8,    4.2,    3.9,    4.5,    4.7,    5.2,    5.6,    4.4,    3.2,    1.7,    0.1,   -1.0,   -2.2,   -2.7,   -4.1,   -4.2,   -4.1,   -3.9,   -3.6,   -4.9,   -5.0,   -5.4,  999.0,  999.0,  999.0,  999.0,  999.0,  999.0,  999.0,  999.0,  999.0,  999.0,  999.0,  999.0,  999.0,  999.0,  999.0,  999.0,  999.0,  999.0,  999.0,  999.0,  999.0,  999.0,   -7.3,   -6.7,   -7.0,   -7.5,   -7.4,   -7.7,   -7.6,   -7.4,   -7.6,   -7.6,   -7.7,   -8.0,   -8.2,   -7.6,   -6.9,   -6.7,   -7.4,   -8.3,   -8.8,   -8.9,   -9.0,   -9.4,   -9.6,   -9.7,  -10.4,  -10.4,  -10.9,  -10.4,  -10.5,   -9.8,   -9.7,   -9.3,   -9.7,   -9.9,  -10.8,  -11.3,  -11.7,  -12.0,  -12.4,  -12.8,  -13.0,  -13.1,  -13.1,  -13.0,  -13.3,  -13.4,  999.0,  999.0,  999.0,  999.0,  999.0
2008/10/29 21:30,    4.5,    5.3,    5.0,    3.9,    4.7,    4.6,    6.0,    6.0,    5.2,    5.6,    4.6,    3.2,    2.5,    0.9,   -0.1,   -1.1,   -2.1,   -2.4,   -2.7,   -2.9,   -2.7,   -3.4,   -3.4,   -4.2,   -4.6,   -6.1,   -6.4,   -6.3,   -7.3,   -7.3,   -6.1,   -6.3,   -6.0,  999.0,  999.0,   -5.9,   -5.3,   -6.7,   -6.8,   -7.6,   -7.4,   -7.0,   -7.6,   -8.0,  999.0,  999.0,   -8.0,   -8.1,   -8.6,   -8.8,   -8.7,   -8.5,   -8.0,   -7.6,   -7.1,   -6.5,   -6.7,   -7.4,   -7.6,   -7.3,   -6.7,   -6.2,   -6.6,   -7.1,   -7.8,   -8.7,   -9.4,   -9.8,   -9.7,   -9.6,   -9.7,  -10.2,  -10.5,  -10.6,  -10.7,  -10.4,   -9.8,   -9.4,   -9.3,   -9.5,   -9.9,  -10.5,  -11.1,  -12.1,  -12.5,  -12.7,  -13.7,  -13.6,  -13.5,  -12.9,  -13.0,  -12.9,  -13.3,  999.0,  999.0,  999.0,  999.0,  999.0
2008/10/29 21:40,    5.4,    5.0,    3.6,    3.7,    3.2,    4.0,    4.3,    4.6,    5.5,    4.8,    3.4,    2.6,    1.8,   -0.5,   -1.6,   -2.4,   -3.0,   -3.3,   -3.6,   -3.5,   -2.9,   -3.3,   -4.1,   -4.2,   -5.3,   -5.4,   -5.3,   -5.9,   -6.8,   -6.5,   -5.8,   -5.6,  999.0,  999.0,  999.0,  999.0,   10.1,   16.1,   15.2,   10.3,   28.2,   26.5,   13.1,  999.0,  999.0,  999.0,  999.0,   -8.4,   -8.6,   -8.5,   -8.4,   -8.8,   -8.3,   -8.1,   -7.8,   -7.6,   -7.5,   -8.2,   -8.5,   -8.5,   -8.2,   -8.3,   -8.5,   -9.1,   -9.8,  -10.3,  -10.7,  -11.2,  -11.4,  -11.3,  -10.9,  -10.8,  -11.0,  -11.3,  -11.4,  -11.7,  -10.5,  -10.6,  -10.9,  -10.8,  -11.6,  -11.7,  999.0,  999.0,  999.0,  999.0,  999.0,  999.0,  999.0,  999.0,  999.0,  999.0,  999.0,  999.0,  999.0,  999.0,  999.0,  999.0
2008/10/29 21:50,    5.3,    4.3,    4.9,    3.8,    3.1,    3.4,    4.3,    6.1,    6.9,    6.4,    5.0,    4.0,    3.0,    1.4,    0.4,   -0.3,   -1.2,   -1.8,   -1.6,   -1.6,   -1.7,   -1.6,   -1.8,   -1.1,   -2.4,   -2.4,   -2.1,   -3.0,   -2.7,   -3.1,   -3.3,   -2.0,   -1.4,   -1.9,   -2.6,   -2.3,   -3.6,   -2.9,   -2.5,   -2.8,   -4.2,   -4.5,   -6.1,   -7.0,  999.0,  999.0,  999.0,   -9.9,  -10.8,  -11.8,  -11.1,  -10.4,  -10.2,   -9.9,   -9.7,   -9.4,   -9.4,   -9.4,   -9.4,   -9.7,   -9.9,   -9.8,   -9.8,  -10.0,  -10.3,  -10.6,  -10.6,  -10.5,  -10.4,  -10.1,  -10.6,  -10.6,  -10.5,  -10.7,  -10.8,  -11.2,  -11.2,  -12.3,  999.0,  999.0,  999.0,  999.0,  -13.7,  999.0,  999.0,  999.0,  999.0,  999.0,  999.0,  999.0,  999.0,  999.0,  999.0,  999.0,  999.0,  999.0,  999.0,  999.0
2008/10/29 22:00,    4.6,    6.4,    5.4,    4.1,    3.4,    3.1,    5.0,    7.1,    7.4,    6.0,    5.0,    4.1,    2.8,    1.8,    0.6,   -0.2,   -1.0,   -1.3,   -1.5,   -1.9,   -2.0,   -0.9,   -0.9,   -1.8,   -2.1,   -1.7,   -1.0,   -1.3,   -1.8,   -3.0,   -3.4,   -2.8,   -2.4,   -1.9,   -3.0,   -3.8,   -3.7,   -3.8,   -4.2,   -5.2,   -6.2,   -6.7,   -7.0,   -6.6,   -7.7,   -8.7,   -9.7,  -11.5,  -12.6,  -14.2,  -14.3,  -13.6,  -13.3,  -12.8,  -12.4,  -12.1,  -11.6,  -10.8,  -10.4,   -9.9,   -9.8,   -9.6,   -9.2,   -9.1,   -9.0,   -8.9,   -8.9,   -8.9,   -9.3,  -10.0,  -10.4,  -11.4,  -11.9,  -12.8,  -12.5,  999.0,  999.0,  999.0,  999.0,  999.0,  999.0,  999.0,  999.0,  999.0,  999.0,  999.0,  999.0,  999.0,  999.0,  999.0,  999.0,  999.0,  999.0,  999.0,  999.0,  999.0,  999.0,  999.0
2008/10/29 22:10,    4.7,    6.1,    6.3,    4.5,    3.8,    3.4,    4.7,    6.3,    7.0,    6.6,    4.8,    4.3,    3.0,    1.2,   -0.6,   -1.2,   -1.4,   -1.6,   -1.8,   -2.4,   -2.5,   -2.1,   -1.0,   -1.6,   -2.1,   -2.1,   -2.1,   -2.4,   -2.1,   -2.5,   -3.3,   -3.2,   -1.8,   -2.0,   -2.9,   -3.1,   -2.8,   -3.3,   -4.2,   -4.8,   -5.9,   -5.5,  999.0,  999.0,  999.0,  999.0,  999.0,  999.0,  999.0,  999.0,  999.0,  999.0,  999.0,  999.0,  -12.0,  999.0,  999.0,  999.0,  999.0,  999.0,  -10.5,  999.0,  999.0,  999.0,  999.0,  999.0,  999.0,  999.0,  999.0,  999.0,  999.0,  999.0,  999.0,  999.0,  999.0,  999.0,  999.0,  999.0,  999.0,  999.0,  999.0,  999.0,  999.0,  999.0,  999.0,  999.0,  999.0,  999.0,  999.0,  999.0,  999.0,  999.0,  999.0,  999.0,  999.0,  999.0,  999.0,  999.0
2008/10/29 22:20,  999.0,  999.0,  999.0,  999.0,  999.0,  999.0,  999.0,    3.1,    3.3,  999.0,    4.7,    3.3,    2.7,    0.9,   -0.6,   -1.5,   -2.0,   -2.0,   -2.1,  999.0,   -2.3,  999.0,  999.0,  999.0,  999.0,  999.0,  999.0,   -5.5,   -5.8,   -5.1,   -5.6,   -4.7,   -4.4,   -4.3,   -4.3,   -4.8,   -5.2,   -4.5,   -5.1,   -6.0,   -7.0,   -7.4,   -8.0,   -9.6,   -9.7,   -9.8,  999.0,  -10.7,  -11.9,  -12.8,  999.0,  999.0,  999.0,  999.0,  999.0,  999.0,  999.0,  999.0,  999.0,  999.0,  999.0,  999.0,  999.0,  999.0,  999.0,  999.0,  999.0,  999.0,  999.0,  999.0,  999.0,  999.0,  999.0,  999.0,  999.0,  999.0,  999.0,  999.0,  999.0,  999.0,  999.0,  999.0,  999.0,  999.0,  999.0,  999.0,  999.0,  999.0,  999.0,  999.0,  999.0,  999.0,  999.0,  999.0,  -11.4,  999.0,  999.0,  999.0
2008/10/29 22:30,   -1.4,   -0.0,  999.0,    1.4,    0.6,    2.2,    2.8,    4.8,    6.5,    4.8,    3.7,    2.8,    2.8,  999.0,    0.9,   -0.5,   -0.6,   -1.6,   -1.7,   -1.8,   -1.3,    0.2,   -0.3,   -0.8,   -0.6,   -0.5,   -1.4,   -1.5,   -1.1,   -1.6,   -2.2,   -1.7,   -1.6,   -1.0,   -2.9,   -2.7,   -3.0,   -3.5,   -3.9,   -5.5,  999.0,  999.0,  999.0,  999.0,  999.0,  999.0,  999.0,  999.0,  999.0,  999.0,  999.0,  999.0,  999.0,  999.0,  999.0,  999.0,  999.0,  999.0,  999.0,  999.0,  999.0,  999.0,  999.0,  999.0,  999.0,  999.0,  999.0,  999.0,  999.0,  999.0,  999.0,  999.0,  999.0,  999.0,  999.0,  999.0,  999.0,  999.0,  999.0,  999.0,  999.0,  999.0,  999.0,  999.0,  999.0,  999.0,  999.0,  999.0,  999.0,  999.0,  999.0,  999.0,  999.0,  999.0,  999.0,  999.0,  999.0,  999.0
2008/10/29 22:40,    5.4,    5.3,  999.0,    3.2,    3.3,    4.1,    6.6,    8.0,    6.4,    4.5,    4.1,    4.3,    4.1,    3.2,    1.5,   -0.2,   -0.5,   -1.6,   -1.2,   -2.2,   -2.1,   -1.6,   -1.1,   -1.4,   -1.3,   -0.6,   -0.7,   -2.2,   -2.0,   -2.7,   -2.8,   -2.9,   -2.4,   -1.9,   -3.3,   -3.2,   -3.5,   -4.0,  999.0,  999.0,  999.0,  999.0,  999.0,  999.0,  999.0,   -8.3,   -9.2,  -10.1,  -11.5,  -11.5,  999.0,  999.0,  999.0,  999.0,  999.0,  999.0,  999.0,  999.0,  999.0,  999.0,  999.0,  999.0,  999.0,  999.0,  999.0,  999.0,  999.0,  999.0,  999.0,  999.0,  999.0,  999.0,  999.0,  999.0,  999.0,  999.0,  999.0,  999.0,  999.0,  999.0,  999.0,  999.0,  999.0,  999.0,  999.0,  999.0,  999.0,  999.0,  999.0,  999.0,  999.0,  999.0,  999.0,  999.0,  999.0,  999.0,  999.0,  999.0
2008/10/29 22:50,  999.0,    3.3,  999.0,  999.0,  999.0,    2.1,  999.0,  999.0,    3.6,  999.0,    4.2,    4.0,    3.8,    2.9,    1.8,    0.7,   -0.2,   -0.5,   -1.1,   -1.4,   -0.5,   -1.1,   -0.6,   -0.7,   -2.1,   -1.3,   -1.9,   -3.0,   -2.6,   -3.6,   -3.5,   -3.1,   -1.8,   -1.4,   -1.9,   -3.6,   -5.6,   -7.1,   -7.9,   -8.4,   -8.7,   -9.5,   -9.3,   -9.2,   -9.3,   -9.8,  -10.0,  -10.4,  -11.2,  -11.7,  -12.5,  999.0,  999.0,  999.0,  999.0,  999.0,  999.0,  999.0,  999.0,  999.0,  999.0,  999.0,  999.0,  999.0,  999.0,  999.0,  999.0,  999.0,  999.0,  999.0,  999.0,  999.0,  999.0,  999.0,  999.0,  999.0,  999.0,  999.0,  999.0,  999.0,  999.0,  999.0,  999.0,  999.0,  999.0,  999.0,  999.0,  999.0,  999.0,  999.0,  999.0,  999.0,  999.0,  999.0,  999.0,  999.0,  999.0,  999.0
2008/10/29 23:00,  999.0,    0.1,  999.0,    0.3,    0.4,    2.1,    0.1,    2.1,    3.7,    2.5,    3.1,    3.9,    4.3,    4.8,    3.8,    1.4,    0.4,    0.0,    0.0,   -0.3,   -0.2,    0.1,    0.0,   -0.5,   -0.5,   -1.2,   -1.8,   -2.8,   -4.3,   -4.7,   -4.3,   -3.4,   -2.2,   -1.9,   -2.9,   -3.9,   -5.5,   -6.7,   -7.3,   -7.5,   -7.7,   -7.9,   -8.4,   -8.6,   -9.1,   -9.6,   -9.5,   -9.8,   -9.7,  -10.3,  -10.9,  -11.2,  999.0,  999.0,  999.0,  999.0,  999.0,  999.0,  999.0,  999.0,  999.0,  999.0,  999.0,  999.0,  999.0,  999.0,  999.0,  999.0,  999.0,  999.0,  999.0,  999.0,  999.0,  999.0,  999.0,  999.0,  999.0,  999.0,  999.0,  999.0,  999.0,  999.0,  999.0,  999.0,  999.0,  999.0,  999.0,  999.0,  999.0,  999.0,  999.0,  999.0,  999.0,  999.0,  999.0,  999.0,  999.0,  999.0
2008/10/29 23:10,    2.9,    3.5,    3.2,    2.9,    2.4,    2.3,    2.9,    3.4,  999.0,    5.4,    4.4,    3.9,    4.9,    4.9,    4.1,    2.7,    2.5,    2.1,    2.1,    1.3,    0.5,    1.6,    1.2,    0.9,    0.0,   -0.6,   -1.2,   -1.3,   -1.2,   -0.6,    0.4,    0.7,   -1.8,   -2.0,   -4.5,   -6.0,   -7.5,   -8.4,   -9.4,  -10.6,   -9.9,   -9.4,   -9.4,   -8.2,   -8.2,   -8.6,   -8.5,   -8.9,   -9.1,   -9.7,  999.0,  999.0,  999.0,  999.0,  999.0,  999.0,  999.0,  999.0,  999.0,  999.0,  999.0,  999.0,  999.0,  999.0,  999.0,  999.0,  999.0,  999.0,  999.0,  999.0,  999.0,  999.0,  999.0,  999.0,  999.0,  999.0,  999.0,  999.0,  999.0,  999.0,  999.0,  999.0,  999.0,  999.0,  999.0,  999.0,  999.0,  999.0,  999.0,  999.0,  999.0,  999.0,  999.0,  999.0,  999.0,  999.0,  999.0,  999.0
2008/10/29 23:20,    2.4,    3.0,    3.3,    3.5,    3.9,    3.1,    3.7,    4.6,    6.4,    6.3,    6.0,    5.2,    5.4,    5.0,    4.1,    3.1,    2.5,    1.7,    1.3,    1.0,    1.3,    1.2,  999.0,  999.0,   -0.2,  999.0,    0.2,  999.0,  999.0,  999.0,   -3.2,   -4.0,  999.0,   -7.1,   -6.5,   -8.3,   -9.6,   -9.5,   -9.5,  -10.1,   -9.9,   -9.8,  -10.9,  -10.6,  -10.7,  -11.3,  999.0,   -9.3,  999.0,  999.0,  999.0,  999.0,  999.0,  999.0,  999.0,  999.0,  999.0,  999.0,  999.0,  999.0,  999.0,  999.0,  999.0,  999.0,  999.0,  999.0,  999.0,  999.0,  999.0,  999.0,  999.0,  999.0,  999.0,  999.0,  999.0,  999.0,  999.0,  999.0,  999.0,  999.0,  999.0,  999.0,  999.0,  999.0,  999.0,  999.0,  999.0,  999.0,  999.0,  999.0,  999.0,  999.0,  999.0,  999.0,  999.0,  999.0,  999.0,  999.0
2008/10/29 23:30,  999.0,    2.5,    4.2,    4.7,    3.0,    4.3,    3.5,    3.9,    4.6,    3.0,    3.5,    2.4,    2.8,    1.2,    2.3,    1.7,    1.7,    2.5,    0.5,    1.1,    1.8,  999.0,    1.5,    1.3,    0.2,   -1.1,    1.1,   -0.2,  999.0,  999.0,  999.0,  999.0,  999.0,  999.0,  999.0,  999.0,  999.0,  999.0,  999.0,  999.0,  999.0,  999.0,  999.0,  999.0,  999.0,   -9.3,  -11.5,  -11.6,  -11.2,  999.0,   -8.7,   -9.0,  999.0,  999.0,  999.0,  999.0,  999.0,  999.0,  999.0,  999.0,  999.0,  999.0,  999.0,  999.0,  999.0,  999.0,  999.0,  999.0,  999.0,  999.0,  999.0,  999.0,  999.0,  999.0,  999.0,  999.0,  999.0,  999.0,  999.0,  999.0,  999.0,  999.0,  999.0,  999.0,  999.0,  999.0,  999.0,  999.0,  999.0,  999.0,  999.0,  999.0,  999.0,  999.0,  999.0,  999.0,  999.0,  999.0
2008/10/29 23:40,    0.0,   -0.0,  999.0,  999.0,    0.0,   -2.9,    2.6,    3.3,    1.9,    1.6,    2.9,    1.6,    0.2,   -2.0,   -0.6,   -1.6,   -5.2,   -2.6,    0.5,    0.3,  999.0,   -0.5,    0.7,    1.1,  999.0,  999.0,   -4.7,   -3.6,   -3.8,   -5.2,   -0.1,   -0.6,   -1.3,   -2.2,   -1.9,   -1.0,  999.0,   -0.8,   -2.5,  999.0,  999.0,  999.0,  999.0,  999.0,  999.0,  999.0,  999.0,  999.0,  -13.3,  -11.2,  -10.3,  -10.0,  -10.1,  -10.5,  -11.1,  -11.4,  -11.7,  -11.5,  -11.3,  -11.9,  999.0,  999.0,  999.0,  999.0,  999.0,  999.0,  999.0,  999.0,  999.0,  999.0,  999.0,  999.0,  999.0,  999.0,  999.0,  999.0,  999.0,  999.0,  999.0,  999.0,  999.0,  999.0,  999.0,  999.0,  999.0,  999.0,  999.0,  999.0,  999.0,  999.0,  999.0,  999.0,  999.0,  999.0,  999.0,  999.0,  999.0,  999.0
2008/10/29 23:50,  999.0,    1.2,    2.2,    3.3,    2.8,    3.2,    3.8,    4.7,    5.1,    5.2,    5.2,    5.4,    5.7,    5.7,    4.8,    4.1,    3.1,    2.0,    1.4,    1.2,    1.3,    1.1,    2.0,    2.2,    2.2,    1.1,    0.3,   -2.0,   -1.9,   -1.7,   -1.9,   -2.4,   -2.9,   -4.1,   -4.4,   -4.9,   -5.5,   -6.0,   -5.7,   -6.1,   -7.0,   -7.4,   -8.1,   -8.9,   -9.3,   -9.8,  -10.0,  999.0,  999.0,  999.0,  999.0,  999.0,  999.0,  999.0,  999.0,  999.0,  999.0,  999.0,  999.0,  999.0,  999.0,  999.0,  999.0,  999.0,  999.0,  999.0,  999.0,  999.0,  999.0,  999.0,  999.0,  999.0,  999.0,  999.0,  999.0,  999.0,  999.0,  999.0,  999.0,  999.0,  999.0,  999.0,  999.0,  999.0,  999.0,  999.0,  999.0,  999.0,  999.0,  999.0,  999.0,  999.0,  999.0,  999.0,  999.0,  999.0,  999.0,  999.0
